GFSSW_500_rhum_000.txt.gz
RH
13 8 2 2 2 2 2 2 2 1 1 2 2 2 1 2 3 4 7 7 8 11 17 19 19 19 16 16 15 46 56 50 34 53 34 16 8 13 6 7 6 6 6 8 9
8 2 3 2 2 3 3 2 2 2 2 2 2 2 2 2 2 2 4 6 6 7 12 10 23 26 28 26 20 56 67 40 28 28 25 25 21 21 17 24 28 29 32 31 28
2 3 3 2 4 4 4 4 4 4 3 2 3 2 2 3 3 3 3 2 3 2 1 2 6 13 17 18 19 25 24 24 17 15 19 15 16 12 13 21 9 6 5 13 17
2 4 4 5 5 5 4 4 4 4 3 3 4 4 4 3 3 3 4 4 4 5 4 3 3 2 2 4 3 3 4 4 4 4 4 4 4 4 4 4 4 4 3 4 5
2 4 5 5 5 4 4 4 4 4 5 4 4 4 5 6 6 4 6 6 7 7 8 7 6 5 6 6 6 7 7 6 5 5 6 5 5 5 5 5 5 7 8 8 8
3 5 6 6 5 3 3 3 4 5 5 6 7 7 6 6 6 7 8 8 9 10 11 11 12 11 11 10 9 10 11 10 8 7 7 7 9 10 12 12 14 15 15 16 18
5 6 6 6 5 4 4 4 3 3 5 5 6 10 8 11 8 8 9 10 12 14 15 15 14 14 17 16 16 15 12 12 12 12 12 12 12 12 16 13 15 15 16 17 19
6 6 6 5 3 4 4 4 4 4 4 4 5 6 7 11 12 12 12 12 13 14 15 16 17 19 20 21 26 18 25 62 24 17 17 18 20 24 22 24 23 23 19 18 19
6 5 4 4 4 4 5 6 6 5 5 5 5 5 6 7 7 9 11 12 12 13 13 14 15 19 22 21 38 72 39 27 26 21 20 20 23 27 29 28 24 23 24 22 19
7 7 7 7 7 6 6 6 6 7 7 6 6 7 5 6 7 8 7 9 11 12 13 14 14 14 16 18 25 30 29 25 24 24 26 25 27 25 22 19 16 17 14 13 18
4 8 8 10 9 8 8 5 5 6 6 7 5 5 6 6 7 7 8 9 11 14 15 16 16 19 19 22 26 27 25 22 22 24 26 26 26 23 22 21 14 11 11 11 10
2 3 4 4 6 6 5 8 8 7 6 6 6 4 4 6 8 8 8 9 11 14 16 17 20 23 24 26 27 27 24 25 28 23 21 27 24 23 19 13 13 13 13 12 12
2 2 3 5 6 6 5 4 7 8 7 5 5 4 4 5 8 11 10 10 12 13 16 17 19 22 24 26 30 28 29 27 26 26 19 24 27 14 18 15 13 16 15 15 16
1 2 2 2 3 5 5 5 5 5 5 5 4 4 6 7 13 15 15 12 12 15 18 18 20 22 23 24 25 27 26 27 28 29 28 24 33 64 22 18 18 21 25 28 30
5 3 3 2 3 3 3 3 3 3 4 6 6 11 11 14 20 20 21 15 14 16 19 21 22 22 22 23 25 24 24 25 26 27 29 28 29 49 50 43 32 29 30 36 42
10 7 8 8 7 7 7 7 6 5 5 8 16 23 24 24 26 25 23 21 17 19 19 20 21 21 21 21 25 24 23 24 22 27 31 31 36 39 61 80 44 52 58 43 42
16 18 11 8 10 10 11 12 14 12 17 22 26 28 28 31 35 33 28 25 25 22 21 20 13 19 23 24 22 24 25 24 26 34 33 63 36 44 56 72 76 77 62 52 49
19 28 20 13 12 14 16 17 18 19 20 22 22 23 23 23 25 36 41 29 26 24 25 21 21 16 23 24 26 30 34 35 35 34 34 40 44 46 74 91 86 76 75 60 44
20 34 27 24 18 14 17 19 17 18 20 19 19 19 19 24 30 32 34 34 28 26 25 21 20 20 28 32 32 37 36 38 38 40 37 38 50 56 78 99 98 93 86 62 68
20 28 33 30 31 30 28 23 18 15 15 18 20 31 39 34 42 42 35 36 30 29 20 14 20 30 31 34 33 36 37 38 40 41 45 48 54 59 96 92 89 96 99 80 69
15 18 28 38 45 52 53 57 59 55 54 54 48 42 40 41 46 44 40 34 30 21 19 22 22 28 32 36 37 39 44 49 50 59 59 53 50 74 77 67 66 64 67 69 71
13 17 25 34 43 52 47 54 51 60 54 48 41 38 38 42 44 40 38 36 31 31 31 32 33 32 38 40 43 47 57 61 62 55 55 53 35 74 72 80 78 88 79 68 66
12 16 20 27 39 44 50 51 59 57 55 50 45 49 52 53 48 46 42 46 40 39 40 38 33 33 42 44 35 37 50 57 62 63 50 60 38 75 78 81 78 73 67 62 65
12 18 18 21 28 35 45 53 53 58 62 59 56 54 59 60 58 54 51 42 50 44 41 37 42 42 50 45 44 43 48 62 69 57 63 69 63 77 87 80 75 73 64 63 65
13 16 16 18 19 21 32 43 52 55 61 66 69 68 65 61 60 57 55 54 53 50 58 61 53 53 63 54 54 54 53 74 77 76 71 64 87 80 78 73 68 63 60 61 58
14 16 18 19 19 20 24 26 27 36 49 46 54 51 54 53 48 51 58 60 56 54 55 54 47 48 48 52 56 51 68 66 64 66 67 64 59 82 72 65 62 64 66 60 62
16 18 20 21 23 25 25 27 28 28 28 30 33 38 41 43 43 41 41 42 41 44 46 49 54 52 43 52 52 52 63 60 54 69 77 77 73 69 67 64 64 62 60 59 57

GFSSW_500_rhum_003.txt.gz
RH
9 12 9 2 2 1 1 1 1 2 2 2 1 1 2 2 2 3 4 6 7 14 17 14 15 17 13 15 41 45 57 48 30 18 15 17 14 16 16 18 15 17 24 24 34
16 5 2 2 2 2 2 1 1 2 2 2 2 2 2 2 2 2 2 1 3 6 13 17 15 14 15 18 18 26 22 35 28 25 21 17 19 7 10 11 7 16 5 2 4
3 2 2 3 2 2 2 2 2 2 2 2 3 3 3 4 3 2 3 3 2 1 4 3 2 2 10 15 14 9 24 9 8 7 3 2 2 1 2 2 4 2 2 3 4
2 2 4 3 4 4 4 3 3 3 3 4 3 3 3 4 5 5 5 4 5 6 3 3 3 4 3 4 4 4 4 3 3 4 4 4 4 3 3 4 6 8 8 8 8
3 4 4 5 5 4 4 4 4 4 4 4 5 5 4 5 7 8 9 9 9 7 5 5 5 6 6 7 7 9 6 3 4 7 6 7 8 10 9 10 12 11 13 14 14
5 5 5 4 4 4 4 4 4 4 4 5 5 5 6 6 7 8 10 11 11 13 13 14 14 13 10 8 8 9 8 7 6 6 8 11 11 12 13 12 17 18 20 20 19
6 6 3 3 3 3 3 3 4 5 5 5 6 7 8 10 9 11 12 13 14 14 15 17 20 19 18 15 15 14 14 10 12 12 13 15 14 17 18 20 20 17 25 20 15
6 5 4 3 4 4 3 3 3 3 3 5 6 7 8 10 12 12 12 12 12 13 14 16 19 20 20 18 20 18 15 12 13 15 16 18 20 22 14 12 13 16 21 21 25
6 6 6 4 4 4 4 3 4 4 5 4 4 5 7 7 8 8 9 10 11 12 13 14 15 19 19 22 18 14 19 24 23 18 18 19 23 23 18 14 10 11 9 9 10
7 7 4 4 4 5 4 4 4 4 4 5 5 6 5 6 6 7 7 8 10 13 15 15 14 15 15 19 21 25 28 23 19 17 21 19 20 20 17 15 10 11 11 9 6
7 6 5 7 8 7 5 5 5 5 5 4 4 4 4 4 7 7 7 8 10 13 15 15 15 15 18 20 20 21 21 20 19 19 20 18 15 15 16 18 12 13 14 13 12
7 7 8 8 9 9 8 7 7 7 6 6 4 4 4 4 5 8 10 8 10 13 14 16 20 20 20 21 22 20 21 21 24 22 17 19 18 16 22 22 16 15 18 22 25
5 6 5 6 8 8 6 5 6 8 8 6 4 4 4 4 6 9 14 11 11 13 15 16 16 18 19 19 23 19 21 21 20 23 25 18 26 20 17 19 28 31 24 24 26
1 2 3 3 4 5 6 6 5 6 7 7 5 4 4 7 8 15 17 17 13 13 14 15 16 16 18 19 21 24 22 22 22 21 24 25 30 34 35 30 28 27 31 32 34
1 1 2 2 2 2 3 4 4 4 4 5 5 5 8 13 14 24 23 22 18 14 14 15 13 14 15 17 17 19 22 23 24 26 27 25 26 49 51 45 47 44 48 60 72
6 5 5 5 4 4 4 4 4 4 4 5 5 7 17 27 30 32 34 31 25 23 20 17 16 18 14 14 17 18 19 24 25 25 31 30 35 45 47 56 64 71 82 91 77
16 18 17 8 10 10 9 9 10 11 13 15 16 23 27 29 27 26 25 34 40 31 24 22 18 14 19 16 19 20 21 25 28 33 31 43 40 53 64 91 100 98 95 86 68
16 22 24 19 11 10 11 13 15 21 16 20 24 24 21 19 18 20 22 22 36 37 32 24 20 16 16 19 23 25 27 29 32 27 26 37 44 53 56 72 69 75 88 81 83
14 32 35 24 21 17 16 15 16 20 20 21 21 19 16 16 21 27 30 33 36 39 37 28 24 16 22 24 24 28 32 32 35 39 40 44 50 76 63 72 97 86 92 86 78
10 24 35 29 28 29 27 27 27 22 18 15 14 20 20 34 40 35 36 46 36 44 33 25 22 28 28 30 33 36 32 38 42 41 38 36 39 81 87 75 97 92 84 74 77
11 18 28 35 33 35 46 54 53 52 58 56 57 53 48 45 41 40 36 45 36 32 25 26 28 38 38 39 37 37 40 52 51 62 57 60 45 83 96 85 84 88 82 84 83
7 14 20 23 29 36 46 49 56 49 46 55 53 46 40 44 46 50 47 44 40 43 41 40 41 41 40 41 48 51 60 63 73 76 69 83 46 78 91 100 100 100 86 81 92
7 8 11 16 22 33 35 41 50 62 61 58 58 54 47 50 54 58 53 54 48 47 49 46 40 39 56 52 51 52 62 68 79 76 76 94 59 82 95 98 100 93 83 70 76
9 9 11 13 16 19 22 28 39 50 59 67 68 64 63 61 61 59 55 51 59 63 63 61 56 48 49 48 44 46 52 68 67 57 58 67 63 81 95 98 86 72 68 76 67
10 11 14 14 16 18 18 18 20 24 35 45 53 63 66 64 58 55 53 51 47 42 40 40 40 42 44 47 52 56 58 60 56 59 56 55 73 83 86 77 70 77 75 77 75
10 10 13 15 17 20 21 23 25 25 32 26 30 30 33 40 43 43 43 42 42 43 44 40 39 39 39 52 53 54 57 54 57 67 72 72 75 91 77 71 74 82 76 76 81
11 11 13 16 18 20 23 24 27 29 30 33 34 37 38 38 39 40 43 46 48 52 57 62 61 58 54 55 52 53 59 55 59 69 65 63 58 63 76 77 76 89 89 88 83

GFSSW_500_rhum_006.txt.gz
RH
70 82 63 8 7 2 1 1 2 1 1 1 1 1 2 2 1 2 5 7 10 13 12 18 18 16 15 19 11 12 10 12 20 19 17 16 15 17 17 18 14 10 15 18 24
66 17 10 6 1 1 1 2 2 2 2 2 3 2 2 2 2 2 2 3 6 9 13 12 11 11 10 12 17 20 20 22 26 11 4 1 1 2 1 1 1 1 2 2 3
15 11 3 1 1 0 1 2 2 2 3 3 3 4 4 3 2 2 2 2 1 3 6 6 10 8 5 7 19 5 3 4 3 3 3 2 2 3 4 5 7 7 8 9 8
5 2 2 1 0 1 2 2 2 3 3 3 4 4 5 6 6 4 4 4 5 6 4 3 3 3 4 3 3 3 3 4 4 4 5 5 6 6 7 8 8 9 10 11 13
2 2 2 2 2 2 2 3 3 3 3 4 4 5 6 8 9 10 10 9 12 11 5 5 6 6 7 7 6 4 4 4 6 7 8 10 12 13 13 10 11 10 10 10 10
3 4 4 4 4 3 3 4 3 4 5 5 5 6 6 7 9 10 11 13 14 14 14 13 12 9 7 6 6 5 5 5 6 7 11 11 16 20 23 19 20 17 19 13 12
5 5 4 4 4 4 5 5 4 4 4 5 6 6 8 10 12 12 13 13 14 14 16 17 17 19 17 13 12 10 12 9 10 12 14 14 15 16 19 22 23 21 21 20 24
4 4 4 4 4 4 4 5 5 5 5 5 6 6 7 9 11 12 12 12 12 13 14 17 19 20 20 20 25 16 14 13 12 13 15 16 16 16 13 13 12 12 13 13 18
3 3 3 3 3 3 3 4 4 4 4 5 6 7 7 8 8 8 8 10 11 12 12 14 15 18 17 17 20 17 9 8 10 16 12 14 17 15 8 11 10 8 10 10 10
3 3 3 3 3 3 3 4 4 4 5 5 5 5 5 7 7 7 8 8 10 12 14 16 15 15 17 16 18 18 16 16 12 13 12 9 11 11 13 16 13 12 8 8 9
6 4 3 4 5 5 4 4 5 4 3 4 4 4 4 4 5 7 9 8 9 12 14 17 15 16 16 19 17 17 16 16 15 11 15 16 15 13 19 17 16 16 14 13 13
7 6 5 7 8 8 7 6 6 6 5 5 4 4 4 4 5 6 11 11 10 12 14 16 17 18 17 20 20 18 20 19 19 17 13 17 18 18 19 21 25 24 25 27 32
7 7 7 8 8 9 8 7 6 8 7 7 5 4 4 4 6 8 13 16 13 12 13 15 15 15 16 18 20 21 22 23 20 22 17 16 18 20 23 23 28 32 33 36 41
6 7 8 8 8 8 7 6 6 6 7 8 6 5 5 5 9 10 16 20 20 14 13 14 13 13 12 13 17 20 19 20 22 23 24 22 28 29 27 29 33 35 40 42 44
5 4 3 3 3 3 5 6 6 6 6 6 5 5 5 6 13 17 22 25 27 23 19 17 16 16 15 10 12 16 19 19 22 24 30 34 32 40 32 37 44 39 42 44 40
1 1 1 1 2 2 2 3 3 4 4 4 6 7 7 9 19 26 29 29 31 34 26 22 22 19 22 14 10 12 18 21 25 28 37 33 35 42 40 53 63 71 56 47 51
4 4 5 6 7 7 6 5 6 7 9 13 15 14 15 24 28 24 21 21 23 24 30 30 24 22 23 18 13 15 18 23 25 27 31 37 44 37 46 53 68 73 76 78 97
15 18 20 20 13 10 10 11 10 12 20 17 20 22 23 23 20 18 15 20 26 28 27 28 32 24 20 14 20 21 21 22 26 25 33 38 44 41 43 60 54 58 72 72 78
10 17 26 26 21 16 14 14 15 15 18 18 19 20 18 18 14 13 31 36 30 30 33 35 32 27 19 20 24 24 27 29 30 32 34 44 49 48 80 69 67 70 72 64 69
7 15 34 32 24 24 25 27 26 27 25 22 19 19 26 42 36 38 33 34 40 41 41 37 32 31 30 35 37 38 32 30 34 38 37 35 43 52 80 84 95 85 73 69 77
6 11 24 32 28 30 34 39 44 43 43 47 47 49 47 43 38 35 43 38 42 37 40 39 43 38 35 36 36 37 36 34 38 51 47 52 41 66 71 83 93 91 87 94 97
7 10 15 23 30 28 32 38 40 44 44 42 49 50 47 40 36 42 45 50 51 50 44 42 44 42 44 44 47 50 50 49 48 48 50 60 40 74 65 76 69 77 82 80 83
7 8 10 14 18 22 26 33 34 38 47 52 51 47 48 51 50 48 53 61 65 58 54 50 48 51 52 44 44 49 55 53 55 56 59 59 58 74 84 80 70 70 77 81 79
9 8 9 12 14 17 17 19 21 26 36 45 52 59 61 65 67 64 64 58 54 51 48 44 43 42 42 44 47 56 61 61 54 52 49 52 48 68 56 61 61 54 52 66 63
12 10 10 11 14 17 16 17 17 20 20 23 24 27 31 35 37 40 42 42 41 39 38 37 38 44 53 56 55 58 60 56 55 57 53 54 54 54 53 51 51 53 56 51 54
13 11 11 10 14 15 16 16 20 24 26 30 33 33 31 34 36 36 37 37 40 43 47 51 56 58 61 61 58 59 60 56 54 52 46 44 41 42 44 47 47 60 51 66 80
15 13 11 12 14 17 19 20 23 25 37 54 60 68 70 47 54 59 61 56 41 39 50 59 56 56 56 55 53 58 51 45 44 48 39 33 33 43 48 50 60 59 56 64 100

GFSSW_500_rhum_009.txt.gz
RH
57 65 73 74 66 30 5 1 1 1 1 1 1 1 1 1 2 3 3 6 8 9 9 13 13 11 11 10 15 22 20 14 12 14 14 14 13 9 4 3 3 3 3 2 3
58 68 80 77 16 4 1 1 1 1 1 2 2 1 2 2 2 2 3 5 7 10 11 10 10 10 13 16 21 18 7 4 4 3 2 2 1 2 4 4 3 4 6 7 9
73 94 66 11 4 1 2 2 1 3 3 3 3 2 2 3 3 2 2 2 6 11 11 11 11 12 14 10 6 3 2 3 3 4 4 4 4 6 7 8 8 9 10 10 11
79 29 11 4 1 2 2 2 3 4 4 4 4 4 4 5 5 4 4 4 3 2 4 3 3 3 3 3 3 4 5 5 5 6 7 8 8 10 9 8 8 8 8 9 9
14 11 3 1 2 2 2 2 3 4 4 5 6 7 9 9 9 8 9 8 7 8 7 5 4 4 3 3 3 4 5 6 7 9 10 11 12 12 15 15 14 14 14 12 13
4 2 1 2 2 2 3 3 3 3 4 5 6 7 8 9 10 11 13 14 15 16 14 10 8 7 5 4 4 4 5 7 7 9 11 13 14 13 12 12 12 12 11 11 12
1 0 1 3 3 3 3 3 4 4 5 6 6 7 8 9 10 11 12 13 15 16 17 18 15 14 15 14 13 9 9 9 12 13 14 14 16 11 13 15 16 13 13 10 9
3 3 2 2 3 4 3 4 4 5 5 6 7 7 7 8 9 10 11 12 12 13 15 17 18 18 17 15 14 15 14 14 13 14 15 14 10 7 11 15 14 11 11 12 11
7 6 6 5 5 5 5 5 5 5 6 6 7 8 8 7 7 8 8 9 10 12 13 14 14 15 15 17 17 18 15 14 14 16 16 16 12 12 16 14 12 13 14 10 12
5 5 4 4 4 4 4 4 4 5 5 5 6 6 6 7 8 8 8 8 9 13 16 17 17 18 18 19 16 16 17 13 10 13 14 11 11 11 14 14 15 15 17 18 20
4 3 2 3 3 4 4 5 5 5 5 5 4 4 4 5 5 8 11 10 9 11 15 17 18 17 20 19 18 22 20 17 13 10 14 14 13 15 15 16 18 18 19 23 25
2 3 3 4 4 4 5 6 5 5 5 4 4 4 4 4 5 7 10 14 11 11 14 17 17 16 17 17 18 19 20 19 16 13 10 12 15 17 18 17 18 19 23 28 34
4 4 4 6 7 7 7 7 7 7 6 6 5 5 5 5 6 10 11 16 17 13 13 14 14 14 12 12 14 15 17 18 20 22 16 20 22 24 23 24 24 25 29 33 39
6 5 6 8 8 8 9 9 8 7 7 8 7 6 5 5 6 10 12 21 22 22 17 14 14 14 11 11 12 14 16 17 18 20 22 27 31 30 28 28 30 34 36 42 42
7 7 7 8 8 8 8 7 6 6 6 6 6 6 5 5 5 11 22 27 31 34 32 25 19 18 17 15 13 16 14 19 21 23 26 26 31 30 28 30 33 40 44 44 43
7 7 7 7 6 4 3 4 5 5 5 5 5 6 6 6 7 16 26 26 25 24 24 28 30 24 21 18 10 14 19 24 22 21 25 27 27 25 30 33 40 45 55 52 53
4 6 4 2 2 2 2 3 4 4 4 5 6 8 11 13 14 25 25 21 18 16 20 22 26 30 28 23 18 13 15 20 22 25 25 23 22 28 35 44 65 68 62 62 74
2 1 1 2 3 6 7 6 6 8 8 10 14 14 16 20 27 24 20 15 13 23 28 27 27 30 29 26 20 18 22 24 28 23 24 26 29 31 37 50 66 54 51 55 46
2 4 10 18 19 13 12 12 11 13 13 14 16 17 20 22 19 16 13 28 31 30 33 34 36 34 32 24 19 18 22 27 26 26 30 39 44 42 48 60 51 51 46 41 46
14 17 22 26 25 22 20 21 22 22 23 23 23 22 20 24 41 37 38 36 37 37 36 36 34 31 28 24 24 24 30 30 31 34 32 33 44 46 52 46 50 41 41 49 58
7 13 19 30 29 25 26 30 38 42 38 33 38 41 44 49 45 36 35 37 45 43 43 43 41 34 36 37 38 39 39 36 36 38 37 34 31 52 43 41 43 53 63 69 72
7 8 12 26 31 30 30 35 37 38 39 38 34 32 38 41 39 34 38 49 58 52 50 49 48 46 47 47 48 42 41 39 37 36 38 42 37 56 51 47 53 55 57 62 60
7 8 9 16 23 27 26 29 32 34 35 37 44 50 53 52 51 50 48 50 57 57 53 48 45 44 40 39 43 43 45 51 45 47 49 46 51 53 53 55 50 48 51 50 45
10 9 9 11 14 16 17 21 20 19 20 28 36 38 41 42 44 46 47 46 44 43 42 40 39 37 40 43 51 59 60 60 50 44 45 47 38 48 40 35 33 34 33 33 33
12 11 10 11 11 12 13 14 16 16 18 21 24 23 23 25 26 30 33 38 40 37 33 32 36 44 48 56 56 54 52 51 49 51 42 46 42 39 36 34 38 41 41 43 49
13 13 11 11 12 13 14 15 18 20 21 25 29 41 46 52 56 57 50 55 62 67 64 61 48 45 44 47 48 49 58 58 55 57 51 46 45 45 46 47 50 56 59 58 58
13 14 13 12 11 11 13 16 18 21 23 27 32 30 33 35 52 65 66 69 72 68 74 78 76 69 58 56 59 62 63 57 56 64 57 50 50 52 57 65 71 74 72 69 75

GFSSW_500_rhum_015.txt.gz
RH
43 55 56 60 45 36 28 35 37 28 44 39 3 2 2 2 4 4 4 8 9 8 8 12 12 12 15 17 24 33 32 19 14 18 11 5 2 2 3 5 5 6 6 7 7
61 50 73 68 45 63 36 34 48 50 11 3 2 4 4 5 6 8 10 10 11 13 16 15 13 15 20 24 30 26 16 12 13 7 2 4 5 6 8 9 9 10 10 11 11
76 62 66 69 68 50 50 78 35 6 5 3 3 3 4 4 6 10 11 12 14 12 13 14 15 16 17 15 15 12 12 9 2 2 4 6 7 7 8 8 8 8 9 9 10
67 70 70 85 92 89 66 14 5 5 2 2 2 2 2 2 3 5 8 11 11 11 13 15 11 7 4 3 2 3 3 3 4 6 6 7 7 7 8 9 12 13 17 15 12
68 82 96 94 65 24 9 6 4 2 3 3 4 5 5 4 3 2 3 4 5 4 4 3 4 3 4 4 4 4 5 7 8 9 10 11 12 11 11 13 12 12 12 10 9
90 95 26 14 11 6 6 4 3 6 6 7 8 8 11 13 13 11 8 6 5 4 4 4 4 4 4 5 5 7 8 9 10 11 10 10 13 16 14 11 11 10 9 9 10
63 19 12 9 5 5 4 6 8 8 9 10 10 10 11 12 13 14 14 15 15 13 10 10 9 7 7 6 6 7 8 9 9 9 10 11 12 18 17 12 11 10 10 10 11
15 11 6 4 4 5 6 7 7 7 7 8 9 9 10 10 10 10 12 13 15 16 15 14 14 15 14 14 14 12 10 10 9 10 14 13 12 14 15 13 11 11 12 13 15
5 3 4 4 4 4 5 6 7 7 8 8 8 8 8 8 8 8 10 12 13 13 14 14 16 16 15 15 13 14 18 16 16 16 15 13 11 10 11 12 14 15 16 16 18
2 3 3 4 5 5 6 7 9 8 8 8 7 8 8 8 9 9 9 10 13 14 14 14 14 15 16 18 20 20 18 16 13 13 13 16 14 15 16 14 15 16 17 20 25
3 4 5 5 5 6 8 9 8 7 7 8 6 6 5 6 7 9 12 9 11 12 11 13 14 16 18 20 20 20 19 17 15 17 15 15 15 14 15 14 17 21 24 30 31
4 4 5 6 10 10 8 7 6 6 6 5 4 4 4 5 7 8 9 12 12 10 10 11 14 15 16 16 15 15 16 18 17 17 20 18 16 17 19 23 26 29 31 31 28
4 8 10 10 8 7 6 6 6 6 5 5 6 6 6 5 5 7 10 11 14 15 14 12 11 12 12 13 12 12 12 12 14 14 15 17 17 18 19 20 24 28 30 30 31
10 9 7 6 6 5 6 6 6 7 7 7 7 6 6 6 5 6 6 13 18 20 21 21 18 16 15 12 12 12 13 11 9 9 14 17 17 16 17 21 24 26 28 32 33
8 5 5 5 5 6 6 7 7 7 7 7 7 8 7 7 7 5 7 11 22 29 30 26 24 24 23 22 19 14 12 11 11 9 10 16 16 14 16 22 26 23 24 30 37
6 5 4 5 6 7 8 9 9 8 8 7 7 7 7 7 7 6 7 9 18 27 25 21 18 18 20 21 21 22 18 17 15 12 14 16 17 16 22 23 26 29 35 38 42
5 4 5 7 8 9 9 9 9 9 8 7 6 6 7 7 9 11 13 15 22 23 19 15 13 13 16 19 21 22 24 22 18 14 17 19 21 23 24 26 28 34 37 41 45
4 4 5 6 7 8 8 9 9 7 5 4 4 4 5 10 15 15 17 20 20 17 12 19 25 25 27 25 26 29 29 26 21 18 20 21 22 22 29 36 35 34 42 44 46
5 6 7 7 8 8 8 6 3 2 3 4 5 7 12 15 16 17 15 16 18 24 26 26 30 33 33 35 33 36 31 30 29 27 26 26 27 33 39 38 40 45 47 47 48
6 7 7 7 6 5 4 2 7 10 11 12 14 16 20 23 25 31 38 37 32 29 25 28 28 29 30 31 31 32 30 29 30 30 29 32 32 46 52 49 42 44 45 43 38
6 6 6 4 3 2 3 18 17 20 25 31 32 30 29 33 36 38 36 32 29 28 28 32 37 41 41 41 40 39 38 37 35 32 31 30 35 50 46 42 39 39 35 34 36
5 4 3 2 3 11 24 24 23 28 34 34 35 34 31 28 30 32 33 32 34 36 40 41 40 40 36 35 33 32 33 34 34 31 30 32 35 48 49 44 40 43 44 47 49
3 2 3 9 18 26 30 27 28 30 32 32 29 31 32 33 30 25 21 20 22 25 28 33 35 39 42 39 38 41 41 41 43 40 43 40 52 50 54 49 47 49 51 49 47
3 6 7 9 17 21 31 30 31 25 26 26 18 17 16 15 22 32 35 36 40 45 48 44 44 52 56 59 53 52 62 65 64 62 55 56 51 67 57 51 50 50 47 48 50
6 7 8 10 11 14 18 18 16 14 16 15 14 13 15 25 28 30 30 33 31 30 32 39 46 45 48 54 56 53 67 74 72 72 62 60 62 58 56 55 54 55 56 52 47
8 9 9 11 10 10 10 11 11 12 13 14 13 16 19 23 22 24 21 18 18 28 40 46 45 47 47 52 56 56 69 72 66 61 58 66 69 67 64 60 58 52 47 42 39
10 10 12 12 11 10 10 10 11 13 13 14 16 16 17 18 18 20 17 14 14 21 34 46 54 56 54 50 48 52 65 71 78 85 81 76 71 64 64 59 55 48 46 43 40

GFSSW_500_rhum_018.txt.gz
RH
35 54 45 58 62 52 33 25 25 32 40 37 35 20 4 2 2 2 2 3 3 4 5 7 10 11 11 16 21 32 21 19 20 18 11 6 3 4 4 4 4 5 5 5 5
53 49 49 58 63 58 43 28 31 35 37 43 13 4 5 5 6 5 6 5 6 8 11 12 14 19 25 24 20 14 19 14 11 7 2 3 4 6 7 8 9 9 8 9 8
54 63 52 60 66 58 47 41 37 38 38 10 8 11 9 9 7 10 10 11 14 14 14 15 18 20 30 25 20 15 13 8 4 2 5 6 7 8 8 9 9 9 9 9 8
84 65 62 54 50 45 44 38 44 21 9 8 8 6 6 9 11 13 14 14 16 16 14 16 20 21 20 13 12 11 4 3 2 4 6 7 7 8 8 9 10 10 9 8 8
66 67 74 86 82 86 75 46 10 7 7 5 4 4 4 6 10 10 11 10 10 10 13 11 7 6 4 3 4 4 4 4 6 7 8 10 11 12 12 12 12 12 9 10 9
68 79 93 97 90 53 18 7 6 5 5 6 7 6 6 6 4 4 4 5 5 6 6 5 4 5 4 4 6 7 8 8 9 10 12 12 12 10 11 10 9 10 8 8 8
94 75 18 23 17 8 6 4 4 6 11 13 13 14 15 16 14 10 8 5 4 5 5 4 5 7 6 6 7 8 9 10 10 11 13 13 12 11 10 9 10 12 12 12 12
23 15 14 9 7 5 6 8 11 14 14 12 12 12 13 13 14 15 15 14 13 13 14 13 13 11 12 11 10 9 9 10 10 10 12 12 12 14 16 10 10 14 15 16 17
15 10 6 6 4 7 10 12 13 12 10 10 10 10 10 10 11 11 12 14 14 15 14 14 14 15 14 15 12 12 15 13 11 10 13 13 11 12 17 13 15 16 17 21 23
5 4 5 5 8 10 10 11 10 10 9 8 8 8 8 8 9 10 12 13 13 13 14 14 15 17 18 18 19 17 18 17 16 15 14 13 10 12 10 14 16 17 21 24 28
4 5 6 8 8 8 10 10 10 9 8 9 8 8 8 9 10 10 9 11 12 13 16 17 17 16 17 16 17 18 19 18 19 20 16 13 12 12 18 18 20 25 28 32 33
4 5 6 7 7 10 11 11 10 9 6 5 5 5 6 7 7 8 12 12 10 11 13 14 16 15 13 13 14 14 15 16 16 17 18 18 20 20 22 25 26 30 32 32 32
4 5 7 6 9 11 11 11 9 6 5 5 5 6 6 6 6 10 10 13 16 16 13 13 13 13 12 13 12 12 11 10 11 12 14 16 18 20 21 20 23 25 28 29 30
5 6 6 9 10 9 9 7 6 6 7 7 8 8 8 7 6 6 6 11 17 20 21 19 18 18 17 16 13 10 11 11 11 12 12 15 20 18 17 19 24 25 24 26 32
5 8 9 9 8 8 7 7 7 8 8 7 8 8 8 8 8 7 6 7 11 19 24 26 26 25 23 22 21 20 20 17 14 13 13 16 24 14 20 23 24 24 22 24 27
9 8 7 7 6 6 7 8 8 8 7 7 8 7 7 6 6 6 6 6 8 13 23 25 22 19 17 15 18 20 19 20 22 20 16 16 22 14 24 26 25 22 25 28 34
7 6 7 6 6 7 8 8 9 8 8 8 8 7 6 5 5 7 10 11 13 15 21 19 15 12 13 13 15 20 22 23 24 26 24 22 20 20 25 26 28 28 30 35 39
6 6 6 6 7 8 9 9 9 9 9 8 6 4 4 5 8 12 12 14 14 16 15 13 22 22 25 25 27 28 30 32 30 28 28 26 24 23 28 32 33 33 38 45 48
6 6 6 7 8 8 8 8 9 9 7 3 3 4 6 10 14 16 15 14 18 25 26 22 24 25 27 28 30 35 31 35 34 31 29 29 32 36 41 39 41 46 48 49 51
6 6 6 6 6 7 8 8 7 3 6 9 10 12 14 19 21 23 27 34 31 26 21 22 24 29 35 37 40 41 39 38 37 35 34 34 33 49 48 46 46 48 50 46 47
5 5 6 6 7 8 7 5 2 13 16 20 27 26 24 22 23 28 32 29 28 28 30 34 34 32 32 33 32 32 32 32 32 34 33 27 32 38 37 42 44 48 55 57 58
4 5 6 7 7 5 3 2 16 21 24 30 28 25 26 26 27 29 34 32 27 23 24 30 38 42 43 44 46 48 46 45 47 44 45 46 40 46 50 50 50 55 56 55 50
5 6 6 6 5 3 4 22 25 23 27 28 24 22 25 28 27 20 20 28 30 33 35 37 38 42 41 40 41 46 48 50 53 53 58 56 66 61 61 58 61 59 58 57 57
4 5 5 4 3 8 19 25 28 26 26 20 18 15 15 14 13 26 26 30 31 29 32 29 38 44 48 49 48 48 53 57 56 59 65 66 58 67 62 67 69 67 68 64 56
3 4 3 3 7 12 18 23 29 27 24 14 12 11 11 13 22 23 24 20 16 15 15 19 28 40 40 52 49 50 54 56 63 70 62 71 72 74 72 71 71 68 64 58 54
3 3 4 7 7 7 12 16 15 14 10 9 10 11 13 15 19 18 19 18 15 13 14 16 22 30 37 50 49 45 52 57 66 74 77 81 84 81 76 70 65 57 51 49 49
4 6 7 8 9 9 10 9 8 8 9 11 11 11 13 13 14 15 16 14 14 13 14 18 40 43 43 47 48 50 47 50 63 74 80 83 78 71 65 59 55 48 55 53 52

GFSSW_500_rhum_021.txt.gz
RH
40 35 46 37 37 44 34 31 30 27 25 33 47 42 38 32 20 6 2 3 4 4 3 4 4 6 6 7 10 13 57 65 48 44 19 10 6 4 3 4 5 3 3 4 4
34 38 41 52 59 62 52 31 26 28 27 32 41 44 18 6 4 4 5 6 8 9 8 9 10 10 17 28 35 28 56 58 23 18 7 4 4 5 5 6 6 5 5 5 5
41 50 48 47 58 59 60 45 28 27 36 41 52 19 9 9 8 9 11 14 14 12 12 12 20 23 25 25 20 38 66 14 8 4 2 3 6 7 7 8 8 8 7 6 7
55 54 60 53 46 50 62 53 40 38 36 29 30 13 13 13 20 14 17 18 16 15 17 26 24 35 55 28 14 25 13 4 3 4 6 7 7 8 8 8 8 9 8 8 7
64 75 70 61 67 63 46 40 40 41 44 19 15 15 15 21 16 19 21 20 18 16 17 20 19 19 13 10 11 6 3 3 4 5 6 7 7 8 9 10 11 10 10 9 8
81 69 66 67 64 43 48 69 45 45 20 14 13 13 15 16 14 13 12 12 11 14 12 11 5 3 3 4 22 3 3 5 6 7 7 8 10 12 12 11 10 9 9 9 11
65 73 79 98 87 81 64 26 10 9 6 6 6 6 7 8 8 7 7 6 6 5 4 4 4 6 6 7 7 8 9 10 11 12 11 13 12 12 13 12 9 10 11 14 15
77 88 94 82 62 41 13 6 6 8 10 12 13 14 15 13 9 7 5 4 4 4 4 5 8 10 9 11 10 10 11 39 13 11 11 13 90 19 13 10 10 15 14 17 18
39 19 17 28 13 6 5 9 14 16 16 16 17 18 20 18 18 16 15 14 12 12 12 10 11 14 12 14 16 16 79 36 14 11 11 14 76 18 13 14 14 16 17 18 21
16 18 8 6 4 5 11 16 17 16 15 14 13 14 14 14 14 15 15 16 15 15 15 14 15 17 20 63 71 68 37 18 30 15 14 13 16 13 14 14 14 16 19 22 26
8 6 4 5 9 13 15 16 14 13 10 9 11 9 9 10 11 13 15 16 16 17 17 17 34 79 20 20 22 21 21 22 21 20 18 17 18 12 13 12 14 17 21 27 32
5 4 6 10 12 15 14 9 11 11 12 10 8 8 8 9 10 10 10 11 13 15 18 18 20 20 19 19 18 16 15 16 17 18 20 19 19 18 19 20 23 25 27 29 28
4 6 9 11 14 14 12 12 11 12 8 5 5 6 6 7 9 10 10 14 12 12 12 17 14 15 15 15 15 14 13 12 12 12 13 15 19 16 18 20 22 22 23 26 24
6 8 9 11 12 12 12 11 8 6 5 6 7 7 7 6 6 6 6 12 16 19 19 18 15 15 15 16 18 16 16 14 13 13 54 13 96 58 28 21 23 26 25 27 29
6 7 7 10 11 12 10 6 6 7 8 8 8 9 8 8 7 7 6 6 8 16 23 25 27 26 25 23 22 22 21 21 22 23 21 20 20 86 56 26 24 26 28 30 30
6 6 9 11 12 8 7 8 9 10 9 9 8 8 7 6 6 6 6 6 6 9 16 20 24 22 19 16 14 13 14 19 20 23 29 43 24 99 82 35 30 25 28 29 29
6 7 10 10 8 7 7 8 9 8 8 8 8 8 7 5 4 5 7 11 11 14 16 19 19 15 14 18 19 18 21 28 29 31 76 41 28 50 29 35 32 30 28 31 36
7 9 8 8 7 7 8 8 8 8 8 8 8 7 4 4 5 8 12 13 13 14 17 16 17 22 24 26 26 28 31 32 35 38 59 29 43 31 37 35 35 36 35 38 52
9 8 6 7 7 8 8 9 9 9 9 9 6 3 4 5 8 14 16 15 14 19 23 23 20 20 23 25 29 34 35 37 36 32 32 36 36 37 38 38 40 41 46 47 53
8 7 7 7 8 8 9 9 9 9 7 4 6 8 11 13 18 21 22 27 32 25 20 21 25 31 33 33 33 34 32 34 33 35 35 86 62 99 54 40 34 36 45 55 53
7 7 7 7 7 8 8 8 8 6 4 13 15 21 22 23 21 21 28 26 23 25 26 25 27 33 36 38 38 38 41 46 44 42 42 38 47 53 58 58 61 60 59 60 62
7 8 7 6 6 7 7 8 5 2 16 21 28 29 23 22 21 23 25 21 20 26 32 34 34 35 38 39 41 42 45 44 45 48 45 53 52 49 59 65 58 57 58 64 66
7 7 6 6 6 7 7 5 3 15 21 25 27 24 25 25 20 15 15 27 30 32 31 25 29 33 31 27 26 38 43 44 48 47 55 59 64 71 69 58 60 65 67 68 60
6 6 5 5 6 6 6 3 12 25 23 25 22 19 13 12 10 12 27 24 25 19 17 22 24 25 32 36 38 41 46 46 42 42 48 61 70 71 89 79 82 78 71 63 64
5 5 4 5 6 6 4 8 23 27 24 24 20 13 11 9 10 18 21 20 17 15 14 14 18 25 41 44 42 43 49 52 51 52 52 63 69 86 77 82 77 70 68 58 57
4 4 4 5 5 4 6 13 18 27 25 23 14 10 9 8 10 18 16 16 16 14 14 14 18 38 46 40 35 38 51 52 49 52 56 65 69 71 77 64 63 56 48 53 50
4 4 4 4 4 5 9 10 12 17 16 10 9 9 9 10 11 12 13 13 14 14 16 16 18 36 36 32 34 38 46 49 48 47 51 56 54 54 55 49 50 43 51 49 43

GFSSW_500_rhum_024.txt.gz
RH
34 40 42 32 45 52 41 30 35 45 42 39 41 39 51 46 40 37 30 16 5 4 4 3 2 4 4 5 41 50 95 95 95 98 67 22 16 15 8 7 6 5 3 3 3
44 34 33 37 32 29 34 44 33 38 35 30 34 43 46 44 34 17 12 6 8 7 6 7 7 7 9 11 62 62 58 65 65 61 36 12 6 4 3 4 5 4 4 5 6
32 28 30 40 34 33 43 56 39 29 30 30 31 46 42 20 14 10 7 9 11 9 10 8 18 25 21 30 49 72 70 59 54 31 9 5 4 5 5 5 5 6 6 7 6
46 44 37 50 44 43 55 56 55 37 28 36 46 55 47 17 13 13 15 16 14 14 27 26 38 34 58 53 55 75 72 61 19 11 4 3 6 7 8 6 8 8 8 8 8
52 56 59 54 57 51 55 59 57 39 38 44 35 47 15 16 15 20 19 16 18 28 30 66 96 86 77 73 34 32 32 10 5 3 5 6 7 8 8 9 12 12 9 8 8
55 58 68 64 64 50 60 52 46 55 33 36 35 18 22 22 26 24 19 17 19 31 26 58 95 82 62 62 71 7 3 3 4 5 6 7 8 9 11 12 14 12 10 11 11
58 73 75 73 67 58 50 42 56 40 57 25 19 20 18 16 21 19 20 16 13 12 17 8 10 43 44 21 6 3 5 7 8 8 8 9 9 13 10 13 11 11 14 15 14
68 76 75 71 77 87 78 68 28 41 32 16 16 17 17 13 12 10 8 10 7 5 4 4 4 4 7 7 7 8 10 38 16 12 11 12 38 60 22 10 12 12 15 18 20
59 82 94 93 98 80 37 14 13 8 8 9 13 10 8 6 5 5 5 4 4 5 7 8 7 8 8 11 17 27 92 91 52 26 12 13 76 96 22 15 14 18 19 19 23
88 72 95 45 28 17 8 6 6 8 11 13 13 14 16 18 18 18 17 14 12 13 12 11 12 17 16 65 98 97 66 76 50 10 12 14 26 99 11 17 16 21 22 26 21
59 19 20 27 11 6 6 8 12 15 16 17 19 17 23 22 21 20 19 18 18 18 16 17 19 96 74 34 48 64 52 50 83 15 19 18 21 25 14 17 15 17 22 32 23
20 17 10 6 6 10 15 15 17 17 17 15 15 13 13 13 14 15 16 17 18 18 20 24 40 48 54 23 23 43 28 38 21 18 20 21 30 14 17 23 19 20 24 24 24
10 9 5 5 13 17 16 14 14 16 13 9 8 8 8 8 9 11 11 11 13 15 16 18 21 21 21 21 20 18 17 14 19 13 16 17 28 15 15 26 25 22 24 26 24
7 5 6 12 16 16 16 14 14 12 8 6 6 7 6 7 8 8 10 13 15 16 14 13 14 14 14 13 15 17 14 16 16 17 34 45 83 92 69 52 42 28 27 25 26
6 9 13 15 13 14 14 14 9 7 7 8 8 8 8 7 7 6 6 6 9 18 21 22 24 24 22 22 23 21 20 20 21 21 26 42 49 100 64 50 45 52 30 29 31
9 11 13 15 14 13 12 8 6 16 8 9 9 8 7 6 6 6 6 6 6 8 10 14 17 20 21 19 16 14 13 12 12 17 21 42 97 97 99 90 86 45 30 30 30
9 10 12 14 13 12 8 7 8 9 8 9 8 8 7 6 4 4 5 8 10 11 12 15 16 17 15 15 21 23 24 26 70 67 71 77 83 81 68 99 86 46 36 35 37
8 9 12 14 13 8 8 9 8 9 10 10 10 9 7 5 4 5 9 12 14 15 16 28 16 20 23 23 24 24 30 30 39 68 61 68 66 62 52 70 78 49 46 47 47
7 8 12 12 10 8 8 9 9 10 10 10 9 7 4 4 6 9 15 15 14 14 17 25 23 20 22 29 32 34 35 35 36 37 36 38 76 96 91 93 82 62 50 36 38
6 8 11 12 9 8 9 9 9 9 9 9 5 4 7 11 15 19 21 20 21 29 23 20 23 28 29 31 34 36 36 38 36 36 34 68 100 99 82 67 72 53 53 46 59
7 10 11 10 9 9 9 9 9 8 8 5 8 12 18 18 24 24 28 27 26 22 23 25 32 35 37 38 37 33 35 39 41 46 46 46 58 67 76 80 86 76 73 63 69
8 10 10 9 10 9 9 8 8 8 5 7 19 28 30 27 23 20 21 23 21 22 31 32 30 33 33 33 32 35 36 36 36 44 43 44 44 56 60 70 83 71 58 70 69
11 11 10 9 8 8 7 7 8 6 3 18 26 29 27 26 24 23 20 18 25 31 31 25 25 24 26 27 27 26 30 29 29 40 50 47 52 63 79 80 98 57 89 79 68
10 9 8 8 7 7 7 7 6 4 12 22 29 27 21 20 18 15 15 24 29 27 16 17 17 18 26 39 34 31 33 35 40 38 39 51 56 66 95 78 77 92 80 68 59
10 8 7 6 6 6 6 6 5 5 24 25 28 24 21 12 11 10 18 20 18 15 15 15 16 16 22 31 30 29 32 37 39 48 47 49 52 74 66 82 59 57 54 51 51
9 8 7 6 6 5 5 6 4 11 27 26 27 24 16 11 9 10 14 17 16 15 14 15 16 17 17 23 26 27 36 32 39 48 53 52 56 68 62 42 51 52 50 50 50
8 6 6 6 5 5 6 5 7 16 25 29 28 20 9 9 10 10 12 15 14 14 14 16 18 18 17 20 23 26 32 33 41 45 56 50 57 52 46 49 57 50 54 52 46

GFSSW_500_rhum_030.txt.gz
RH
30 26 29 44 46 37 43 40 31 36 38 32 27 33 61 59 56 43 48 50 43 39 31 86 97 92 49 70 87 91 94 87 76 81 94 97 94 90 78 73 14 8 5 3 3
28 16 22 36 41 42 37 33 36 46 34 32 36 40 57 51 47 45 45 40 30 24 8 49 49 39 89 85 96 95 82 75 87 98 93 100 87 81 73 26 7 8 3 3 3
25 15 20 38 37 42 36 31 26 40 46 36 43 48 47 43 42 39 36 20 14 10 10 12 16 90 99 94 99 91 89 93 96 100 99 88 69 34 13 4 6 5 4 4 3
24 18 36 37 33 31 31 34 31 43 55 37 37 41 35 28 42 36 17 17 16 14 15 61 99 100 88 89 80 76 75 70 84 97 94 64 15 4 6 5 5 5 6 5 5
16 33 38 49 49 46 31 38 41 45 60 45 34 32 30 34 33 20 20 20 19 21 60 81 93 95 86 83 79 71 76 70 70 75 62 34 5 7 7 8 9 8 7 6 6
28 35 47 53 59 55 50 51 54 56 65 52 35 28 35 47 30 20 23 20 22 27 56 69 81 94 80 73 68 62 65 41 60 59 11 7 7 7 7 8 8 9 8 8 7
35 38 49 58 58 63 54 55 60 61 69 50 40 35 40 33 27 19 17 26 35 34 44 41 41 57 72 67 60 48 26 8 12 10 10 14 12 12 9 8 8 7 6 8 10
35 50 62 57 57 65 63 57 58 62 62 79 47 32 25 28 29 18 15 18 14 23 25 28 23 38 37 18 6 6 7 31 30 19 13 13 11 39 21 12 8 8 8 7 7
52 50 65 71 71 73 60 54 57 66 79 34 44 26 30 28 25 18 16 15 19 44 37 37 34 34 31 58 89 36 14 28 22 34 32 16 13 17 17 14 10 9 7 8 9
37 54 68 65 65 73 64 63 72 58 35 30 28 30 29 26 20 20 18 17 26 49 22 35 48 60 71 77 71 62 64 22 32 37 46 27 15 11 9 11 15 18 12 13 14
37 67 66 70 61 62 88 100 60 37 29 28 26 25 28 25 21 18 17 15 11 14 84 76 58 40 33 88 80 83 52 45 54 32 40 38 27 16 14 14 20 24 30 28 26
60 63 75 77 82 95 75 29 27 25 22 19 17 15 12 11 11 9 9 11 15 28 33 28 31 44 43 54 95 92 89 76 38 42 36 23 24 25 25 20 18 20 26 32 52
69 62 67 85 86 38 18 21 20 21 16 14 13 10 11 16 16 20 22 21 23 24 19 29 47 41 39 43 40 77 82 59 52 42 31 18 17 16 15 16 21 46 54 98 99
66 42 76 88 24 16 16 16 14 14 18 20 22 22 20 19 19 19 19 20 19 19 21 26 34 25 23 27 24 23 26 41 35 20 22 22 21 22 20 18 22 24 39 54 99
62 22 21 15 16 14 14 14 17 20 25 20 13 10 10 10 10 11 12 13 15 18 18 17 17 16 18 29 22 22 21 23 23 22 22 23 28 31 26 23 23 36 98 100 99
34 19 14 13 12 13 15 18 17 16 13 10 9 8 9 10 10 10 11 13 16 20 21 22 26 27 28 27 25 22 18 15 13 13 13 17 19 21 32 45 54 72 100 99 96
17 13 13 12 14 17 18 16 14 16 8 9 9 10 10 9 8 8 8 8 8 9 11 17 19 15 13 12 12 13 17 17 17 22 51 44 47 48 59 84 89 98 69 51 45
9 12 14 16 18 17 16 13 21 10 9 10 10 9 8 7 6 5 5 6 8 10 11 10 12 11 13 16 17 18 22 26 28 30 34 30 44 78 77 47 95 46 49 62 73
10 13 14 18 17 16 16 22 25 9 9 9 9 10 9 7 5 4 6 9 12 13 12 16 23 18 16 23 26 30 32 32 32 34 38 35 35 35 34 38 65 96 99 98 94
11 15 17 18 15 16 13 26 11 9 9 10 10 10 8 5 5 5 12 15 13 14 16 21 18 22 28 32 32 29 27 24 24 25 28 28 30 34 46 51 52 62 68 69 63
11 16 18 16 15 14 9 9 10 11 11 10 9 6 6 7 10 13 19 20 18 21 20 20 26 32 33 29 30 29 23 23 23 22 21 25 32 38 43 43 43 48 48 49 54
12 17 18 14 14 10 7 9 10 11 11 9 6 10 15 19 18 24 24 23 26 21 22 27 31 31 28 30 30 25 24 23 24 24 23 25 31 29 34 38 37 40 45 55 73
15 17 15 14 13 12 9 10 11 10 10 8 6 15 27 27 24 24 22 24 22 21 26 30 27 26 21 21 24 25 23 20 16 18 22 22 24 25 23 30 46 51 51 73 82
16 15 13 14 13 13 8 9 11 11 9 8 6 20 32 25 27 23 22 20 20 22 31 25 23 18 16 17 18 20 20 18 18 19 20 21 21 22 26 39 52 57 64 70 67
12 13 13 13 11 10 8 10 11 9 8 6 7 22 28 23 25 24 22 17 22 26 32 22 15 15 16 17 18 18 18 19 20 20 21 22 22 26 32 42 51 56 56 54 61
10 10 12 12 11 10 10 10 9 7 7 6 9 23 26 20 19 24 18 15 24 29 31 17 15 16 16 17 18 19 19 19 20 21 21 22 22 26 26 32 50 58 63 68 68
8 8 9 10 10 10 11 10 8 7 6 6 9 25 27 30 29 26 20 14 17 27 25 20 17 15 15 16 18 19 19 20 20 20 21 22 23 25 27 38 54 68 76 79 78

GFSSW_500_rhum_033.txt.gz
RH
37 43 19 28 24 30 48 39 40 39 24 26 26 20 21 38 60 64 68 61 53 41 47 43 71 59 90 84 39 90 97 94 74 90 83 97 95 90 95 94 92 66 13 8 4
25 43 22 27 16 26 39 42 40 30 28 42 34 32 26 51 59 59 56 54 52 44 42 27 81 71 63 84 71 98 98 94 73 83 85 75 96 88 60 30 25 15 8 4 3
45 54 27 25 16 24 37 40 41 25 33 41 34 39 31 54 52 54 52 46 38 27 22 16 63 61 55 74 81 85 99 96 98 86 91 93 84 54 15 5 4 6 4 3 3
46 62 48 31 23 37 37 36 33 30 34 47 40 43 47 45 47 50 42 29 19 20 19 58 86 68 81 100 100 99 98 97 100 96 91 93 64 29 6 6 6 5 4 5 5
46 38 20 18 35 44 45 42 32 36 40 49 42 38 41 37 48 42 29 22 23 21 29 88 100 98 99 97 97 89 90 84 85 80 90 84 38 8 10 9 10 8 7 7 8
44 29 18 33 43 53 57 44 35 46 42 52 45 34 32 39 44 36 23 23 22 20 73 89 91 94 90 88 81 74 77 70 58 65 67 23 6 9 10 10 10 11 8 7 7
29 17 34 36 44 53 58 58 53 56 51 60 46 32 40 46 35 28 23 21 18 46 84 94 97 91 86 80 72 54 67 52 43 47 14 7 9 13 10 9 10 9 7 6 7
16 33 36 41 54 65 62 63 58 61 61 70 56 33 50 43 38 26 22 22 31 68 82 91 97 94 83 75 66 47 25 49 15 8 11 11 11 18 16 12 8 6 6 6 8
28 43 46 53 68 62 56 58 58 59 61 68 59 52 30 35 34 26 21 22 36 55 76 78 79 89 79 60 40 17 30 13 21 31 14 12 13 25 19 22 8 9 10 10 10
48 48 44 69 60 70 72 58 57 57 63 64 71 34 35 35 31 30 19 24 47 56 65 50 45 57 50 24 9 11 14 19 32 38 20 16 15 9 9 12 14 16 13 12 13
48 41 64 68 72 71 73 60 55 60 56 34 34 34 34 29 26 25 19 22 64 70 39 41 38 46 26 47 52 52 19 41 38 26 36 25 13 12 13 13 15 20 20 18 20
49 41 64 72 73 64 63 58 82 46 32 29 31 35 30 21 20 22 26 32 41 53 42 23 33 37 78 88 77 66 74 33 39 65 44 25 21 17 16 16 14 14 21 45 54
48 55 60 71 65 57 79 86 51 40 27 27 27 26 24 22 19 20 18 15 23 54 29 26 43 58 95 78 89 77 84 75 65 56 39 27 16 15 16 18 23 43 37 73 81
43 58 65 66 68 95 56 24 28 31 24 18 14 12 10 10 9 10 11 13 15 20 22 28 25 36 39 31 50 69 66 69 61 47 45 38 22 17 20 27 38 37 34 57 80
62 50 52 63 93 22 20 23 24 21 16 12 16 23 24 23 24 23 23 19 20 22 22 32 37 34 29 25 22 21 21 21 20 21 24 27 29 24 22 22 26 44 52 62 82
58 37 25 93 58 15 16 15 17 19 21 24 24 20 19 19 18 19 19 20 23 24 26 33 27 20 19 23 29 28 27 25 24 23 20 19 18 13 14 18 29 46 67 92 74
56 44 22 26 14 15 16 19 24 23 19 17 12 9 10 10 10 10 11 13 17 25 30 24 22 25 26 26 22 20 16 16 18 18 18 21 30 37 33 46 55 72 45 86 97
45 23 17 13 15 16 21 23 21 17 11 10 9 10 10 9 10 10 10 12 13 15 21 20 17 16 14 14 18 18 19 23 24 25 25 26 24 26 30 30 30 33 37 42 82
32 16 14 13 14 19 24 18 14 10 9 10 10 11 10 9 8 7 7 7 8 8 12 16 14 15 17 18 23 28 31 28 23 22 21 20 19 24 25 27 32 37 40 77 99
18 12 13 17 19 21 17 13 16 8 10 11 11 10 10 9 7 7 6 7 8 11 14 16 20 19 22 28 31 27 24 22 23 22 21 19 18 17 19 21 29 33 38 42 44
13 13 15 20 20 17 13 12 19 9 10 10 10 11 10 8 5 5 5 11 14 13 15 21 20 27 33 33 28 29 24 23 22 21 20 19 18 18 16 16 23 31 38 43 46
12 14 17 19 17 14 12 34 12 11 11 11 10 8 6 7 7 9 12 18 19 18 22 20 29 32 33 32 32 32 25 23 21 18 18 18 18 17 18 18 16 16 16 20 27
12 16 18 18 14 13 12 24 14 11 11 10 10 7 13 15 17 21 22 22 20 22 20 25 30 32 30 27 25 25 23 22 20 18 18 19 19 20 20 20 20 18 18 20 28
14 18 19 17 13 14 10 10 11 12 12 11 9 8 24 28 26 25 23 26 24 20 22 30 29 28 23 18 17 17 19 19 18 18 19 20 20 19 20 21 22 22 22 27 36
12 16 17 15 13 15 9 9 11 11 12 10 8 7 24 31 30 25 24 25 25 22 24 32 26 23 17 15 16 17 18 19 19 19 20 20 20 19 20 22 23 24 27 31 40
11 17 18 16 15 14 7 9 11 12 11 9 7 6 21 32 31 27 26 25 23 25 27 34 30 18 15 15 16 17 18 19 19 19 19 19 19 19 20 22 24 26 28 30 37
10 17 17 16 14 11 9 11 11 11 10 8 6 6 22 32 27 24 23 22 19 21 26 30 29 18 15 16 16 16 17 17 18 19 19 19 20 23 25 27 27 28 31 34 42

GFSSW_500_rhum_039.txt.gz
RH
13 14 11 8 5 5 24 40 25 19 24 43 43 36 19 22 19 22 30 27 59 63 50 70 74 70 51 69 93 95 61 49 62 91 97 92 96 98 97 96 95 85 44 24 14
14 16 14 8 5 7 30 41 26 21 18 33 44 22 22 30 24 22 26 53 77 71 64 63 67 58 43 74 91 98 97 80 88 91 97 97 95 88 94 94 33 18 18 12 7
15 19 16 8 5 13 36 46 36 24 23 34 39 24 27 32 30 28 54 70 64 58 54 52 53 53 54 87 92 98 98 96 96 99 98 96 85 70 52 8 6 4 11 7 4
15 19 18 7 7 23 37 17 20 32 36 39 37 36 38 36 34 42 64 61 55 52 56 48 61 35 87 99 81 91 97 93 94 96 97 92 65 23 8 7 8 8 7 6 6
17 19 18 6 11 28 21 20 32 38 40 36 35 33 46 45 42 48 54 52 46 46 30 38 59 100 99 98 92 91 94 92 97 90 97 92 63 13 14 9 8 8 7 9 12
21 19 16 6 16 23 19 33 37 47 49 48 33 36 48 41 49 51 49 43 37 26 50 78 90 98 79 88 98 98 96 95 94 97 94 82 62 12 15 12 9 10 13 15 16
22 20 12 5 19 20 32 35 39 48 54 44 34 41 52 39 45 46 51 42 28 37 100 96 95 90 89 99 100 96 99 95 79 73 69 68 48 16 17 15 17 18 16 16 16
21 16 7 11 20 30 38 40 46 57 61 47 43 53 59 43 44 46 46 34 34 94 100 100 100 99 98 90 85 89 87 74 75 59 60 50 18 13 27 22 22 24 20 19 18
21 14 5 23 23 37 46 52 63 61 69 60 54 63 62 56 52 47 38 35 69 100 100 95 100 97 96 87 71 42 64 56 42 32 22 12 16 20 24 22 21 28 23 18 19
21 13 8 22 28 42 46 54 68 64 71 74 62 71 72 58 52 56 42 42 100 98 100 92 96 86 83 74 73 44 68 49 55 33 17 16 26 32 40 38 29 38 30 28 23
16 12 10 20 34 47 52 55 58 63 63 69 72 74 83 57 44 54 48 68 91 97 100 85 92 88 85 81 59 38 57 42 22 17 18 21 20 20 40 26 28 31 27 26 21
14 10 11 19 39 51 54 58 68 61 64 60 80 88 62 42 43 62 66 69 92 100 95 99 88 99 86 88 67 32 71 30 34 45 33 26 25 24 22 22 19 18 19 20 23
13 9 12 20 42 55 54 63 68 53 57 76 68 65 46 39 36 59 71 94 98 100 99 90 64 65 72 65 72 43 34 62 71 71 46 26 22 19 17 16 16 19 22 22 23
13 8 16 25 43 54 55 56 60 64 67 52 42 36 38 34 34 37 65 99 100 100 96 81 58 54 67 63 60 51 49 23 15 35 39 24 16 14 13 17 20 22 20 20 21
12 10 18 28 42 56 66 62 88 62 42 42 35 37 27 21 24 28 55 90 97 95 92 75 66 48 56 56 53 53 79 70 52 35 22 15 16 14 17 16 17 16 18 20 24
12 13 19 33 40 47 62 66 73 43 30 31 34 29 24 21 22 25 45 69 77 87 57 59 42 36 33 61 71 48 38 36 24 18 15 18 15 14 18 22 29 33 32 35 40
11 15 19 37 43 53 70 57 44 32 24 25 24 24 22 20 21 24 27 31 29 25 23 28 26 38 44 48 48 31 22 20 22 20 14 18 19 24 21 21 21 24 26 28 31
11 17 22 40 44 63 50 40 31 22 18 16 15 14 14 14 12 11 10 11 13 19 26 29 32 33 35 34 24 24 25 19 14 18 26 23 18 18 16 15 15 16 17 19 21
14 20 29 43 46 61 24 19 21 16 14 19 24 24 22 20 20 20 21 22 23 23 25 27 25 25 25 29 26 19 15 19 26 24 20 18 18 17 16 15 15 16 16 16 16
27 22 45 44 60 59 15 21 14 15 21 25 24 22 20 20 17 13 12 12 12 16 20 23 21 20 22 20 15 17 25 30 24 22 21 19 18 18 18 18 17 18 16 17 19
25 32 48 45 73 35 14 14 16 23 26 22 14 11 12 11 11 11 10 10 11 12 12 12 13 17 17 15 20 26 33 26 23 22 20 18 19 18 18 16 15 14 15 18 24
31 42 57 44 59 16 15 15 22 26 21 14 10 11 12 11 11 10 10 9 9 9 10 12 14 18 26 22 24 34 31 25 25 25 23 20 17 18 18 16 14 14 17 23 28
34 58 70 46 30 15 19 21 24 25 14 11 11 11 12 13 13 13 11 9 7 8 14 14 14 19 23 24 32 30 32 33 28 25 20 18 18 18 17 16 16 16 20 24 33
48 67 81 39 17 22 21 22 21 19 10 11 13 13 12 9 9 10 8 7 7 8 17 18 16 20 24 30 33 31 31 26 21 18 18 18 18 19 18 18 17 17 18 21 27
50 46 67 31 16 23 22 20 16 16 10 13 14 12 9 9 17 17 19 14 17 20 22 20 19 21 28 31 31 26 22 18 17 17 17 17 18 18 18 17 17 18 18 20 22
47 42 50 25 23 25 21 18 18 19 12 15 14 12 10 9 17 28 28 27 27 27 23 20 20 22 27 29 28 24 18 16 16 16 17 17 17 17 17 16 16 17 19 21 23
56 40 44 24 23 26 18 18 27 18 16 15 14 13 11 8 16 33 34 31 28 24 23 21 20 21 23 27 24 16 18 17 16 16 17 18 20 19 17 17 17 18 20 22 23

GFSSW_500_rhum_042.txt.gz
RH
20 15 16 16 18 17 10 8 12 36 35 22 18 35 42 31 20 14 15 17 24 28 41 47 51 76 76 69 54 76 89 100 91 71 76 71 77 88 91 95 96 95 96 87 44
24 18 17 17 18 18 9 8 18 34 33 32 20 31 41 24 22 21 20 24 28 50 72 73 62 70 72 59 63 87 96 100 99 95 95 98 96 96 96 97 97 76 23 10 6
26 21 21 21 20 18 8 9 26 23 22 22 26 38 34 28 27 29 24 28 41 72 71 66 64 68 63 53 87 99 100 95 64 89 93 95 81 59 46 33 53 13 23 7 5
29 26 25 23 19 18 7 11 21 16 25 26 29 39 34 36 38 36 30 52 65 61 59 55 59 60 50 76 98 98 95 77 98 98 97 87 23 10 14 10 9 9 8 9 8
30 26 25 24 19 15 7 14 18 22 29 30 38 36 34 36 48 43 43 57 58 58 52 52 50 42 40 79 93 90 94 94 96 96 98 67 23 17 8 9 10 12 11 10 11
33 25 23 23 18 11 8 18 24 26 36 42 45 46 33 40 44 41 51 54 52 38 30 33 61 67 73 95 96 90 95 98 96 97 93 66 40 22 15 12 14 15 13 13 15
30 21 20 19 17 9 12 23 32 37 38 46 52 39 36 50 37 48 49 49 40 30 70 83 80 93 94 96 98 96 95 98 96 95 76 47 40 15 14 25 25 20 17 16 16
23 19 18 20 16 8 17 27 37 45 54 57 59 45 49 56 39 47 49 47 29 78 98 100 92 98 99 94 95 98 98 97 94 81 64 52 36 15 16 31 33 32 26 21 18
16 14 15 18 14 9 22 34 39 49 65 62 70 61 56 63 40 50 48 36 46 91 100 97 100 100 97 94 92 91 96 87 87 66 49 36 25 21 16 30 37 51 40 29 23
12 12 14 15 12 12 26 38 42 42 65 65 77 77 63 70 50 52 40 39 86 69 98 98 99 98 96 98 88 52 80 56 46 36 28 16 20 26 29 52 76 75 50 35 27
10 11 13 14 10 16 29 43 46 51 62 67 68 80 78 72 62 59 56 53 81 100 98 97 100 100 93 82 81 51 68 66 59 57 42 26 36 47 58 64 43 28 29 32 26
9 11 12 14 10 18 32 48 35 54 60 64 73 79 75 73 61 54 61 53 93 98 94 93 100 98 93 77 65 67 52 89 83 51 47 38 29 30 32 30 26 25 25 23 20
6 9 13 14 12 20 32 53 39 55 57 60 62 65 78 68 49 45 65 82 86 100 97 100 78 90 90 92 85 66 61 97 65 73 70 51 34 31 26 24 20 21 22 26 28
4 9 12 12 13 22 36 49 37 54 52 53 66 71 71 55 43 46 68 99 97 98 100 85 86 67 56 61 65 60 46 29 22 53 88 44 80 31 23 24 22 28 30 28 23
3 8 11 12 14 22 33 46 32 52 56 61 55 53 40 44 44 50 63 99 99 87 99 91 82 70 60 64 52 72 83 92 81 70 54 26 25 72 17 19 20 19 17 18 19
4 8 12 12 15 21 33 34 42 64 62 41 42 37 35 29 32 34 38 58 98 100 99 94 97 84 70 52 58 66 67 52 77 56 32 24 19 50 19 20 16 20 26 28 31
4 11 15 12 13 24 33 35 47 50 43 28 28 34 25 21 24 27 31 48 90 97 84 91 75 65 43 38 42 73 55 37 25 23 21 16 15 20 22 20 18 18 18 19 21
3 12 12 15 12 23 30 42 39 46 36 23 27 31 23 22 23 22 30 43 58 73 76 56 36 31 35 45 56 49 36 24 25 21 15 19 23 20 17 16 15 14 14 15 15
4 17 13 16 16 25 36 34 39 42 27 20 22 24 22 20 20 22 21 22 24 22 26 27 29 31 36 37 34 28 28 28 18 16 26 22 20 17 15 15 15 16 17 15 17
7 26 25 21 24 30 46 36 42 36 19 13 12 12 13 12 12 12 12 13 14 17 24 27 28 27 27 27 24 26 23 18 24 26 22 20 18 17 16 17 17 16 15 14 16
19 32 27 31 44 29 35 40 31 25 11 10 12 18 22 24 24 23 22 21 20 20 20 20 23 23 22 21 20 18 16 27 31 24 21 19 18 18 18 17 16 16 14 14 16
27 34 27 42 51 57 56 44 20 16 9 15 25 23 15 15 12 12 11 11 11 11 12 13 12 12 14 17 15 14 23 32 25 24 22 23 21 18 18 18 18 18 17 16 17
62 34 32 68 63 71 76 29 18 13 14 24 21 12 11 12 11 10 10 9 8 8 7 8 10 11 14 17 23 23 32 31 26 25 24 24 18 18 18 18 18 18 17 17 18
65 40 36 64 83 87 58 28 15 19 22 21 13 10 11 11 12 12 11 11 10 7 7 9 15 15 16 22 24 28 32 30 29 28 26 19 17 18 17 17 18 18 17 17 17
53 39 32 56 88 64 36 28 18 25 21 16 11 11 12 13 10 9 9 9 8 7 8 9 18 18 18 20 23 29 32 29 27 25 18 16 17 17 17 17 18 18 17 17 17
46 35 37 82 82 50 32 23 28 24 16 12 12 14 13 10 9 15 18 21 18 18 22 22 21 21 19 20 24 29 29 27 24 20 18 16 16 17 17 17 18 18 19 18 18
39 35 45 99 69 35 26 23 30 23 16 12 16 15 13 10 8 12 26 31 30 27 24 25 23 21 19 20 22 21 26 28 27 25 22 18 20 17 16 16 17 20 18 17 18

GFSSW_500_rhum_048.txt.gz
RH
18 19 26 28 31 28 21 18 14 8 7 7 4 7 14 18 17 18 26 24 18 15 15 14 16 24 54 67 85 71 55 52 86 98 97 89 87 96 94 78 79 80 73 84 62
19 23 28 33 33 28 20 20 13 8 8 5 4 11 15 18 18 19 28 24 21 16 18 19 35 55 56 56 85 79 61 91 93 97 94 76 94 95 98 99 81 73 91 72 62
21 24 29 36 33 29 24 20 11 8 8 5 8 17 17 16 18 25 33 32 28 20 23 38 80 81 71 68 85 77 62 99 94 89 71 76 95 97 100 87 94 83 95 78 77
24 25 30 37 34 33 27 16 10 8 7 5 11 23 25 27 33 32 33 38 32 30 44 76 73 73 72 74 76 73 79 100 99 53 60 77 96 88 95 94 92 89 72 68 71
32 32 36 38 36 35 24 13 8 9 6 7 16 27 28 41 43 38 34 42 36 60 66 67 68 66 68 73 80 88 63 70 100 68 97 88 95 98 78 52 96 44 37 30 16
37 37 41 40 38 32 19 11 8 9 6 8 21 24 36 45 46 42 38 35 41 57 59 60 59 55 63 90 97 93 90 61 89 75 98 90 96 90 24 33 12 8 8 6 6
43 42 44 41 34 23 13 10 8 8 6 10 24 25 42 56 56 47 42 45 49 55 52 43 42 43 49 58 88 98 59 58 78 95 100 96 96 81 40 16 13 16 10 12 11
48 47 45 32 26 15 11 9 7 7 7 12 28 28 45 59 58 52 43 44 44 43 38 35 34 40 48 63 89 90 62 94 99 99 98 94 77 32 27 17 15 13 13 14 11
48 47 32 26 18 12 10 9 7 7 7 15 32 30 47 57 57 56 41 46 46 40 42 59 69 82 81 88 86 83 92 87 87 94 95 97 76 33 22 19 17 17 19 18 14
36 35 22 22 14 10 9 8 7 7 9 22 34 34 46 59 55 59 46 49 42 45 77 95 96 96 92 95 90 93 92 80 84 55 90 91 100 83 31 26 23 26 25 29 22
28 25 16 17 13 9 9 8 8 8 11 22 22 29 59 62 60 51 46 45 47 74 93 86 96 97 96 97 97 95 97 86 97 44 39 87 95 32 18 24 25 40 24 23 21
25 22 15 14 13 9 9 8 8 9 11 20 18 31 64 60 55 57 51 44 54 93 69 98 95 96 96 92 98 98 97 99 93 66 36 92 80 20 14 15 14 18 21 24 26
26 23 14 13 12 9 9 8 9 10 13 16 19 32 40 42 45 45 48 51 74 77 99 86 97 68 92 90 96 100 90 94 91 74 29 99 70 37 26 26 23 20 18 18 16
24 21 17 11 10 9 8 9 11 10 14 19 24 34 34 35 37 43 32 55 67 97 84 90 98 78 92 99 100 98 72 92 92 73 67 46 98 100 84 55 65 62 37 27 18
25 21 16 14 8 8 8 12 13 11 20 19 31 32 37 44 44 58 49 44 47 99 98 97 81 95 81 91 90 58 92 92 97 100 93 94 82 72 96 78 41 58 48 26 20
24 17 14 11 6 6 9 8 14 15 19 24 29 39 43 52 49 47 43 37 45 90 99 92 99 86 92 97 74 46 40 60 57 68 77 90 89 83 92 98 97 90 42 26 18
13 10 9 7 6 5 5 6 13 10 29 26 34 35 37 34 38 31 45 39 37 67 86 69 90 56 66 53 33 37 42 63 99 99 71 78 76 95 66 91 57 14 20 23 21
14 8 6 6 6 4 4 7 8 14 28 34 40 29 23 28 26 25 33 35 41 59 89 78 98 80 50 42 47 37 95 81 94 74 92 76 91 76 36 46 39 21 18 16 15
8 7 6 4 3 3 3 6 7 17 41 46 54 36 20 37 55 25 28 42 32 36 65 96 96 82 57 31 44 97 92 79 68 58 25 30 38 52 58 25 19 16 16 16 17
3 5 10 2 2 2 3 5 6 19 49 74 85 40 21 40 41 60 27 36 55 84 69 83 63 98 60 36 23 26 39 41 34 22 14 82 79 93 75 46 18 16 17 16 16
5 8 8 2 2 2 4 4 7 19 53 39 69 40 23 91 71 23 28 46 76 92 80 81 97 95 90 23 24 30 45 25 26 41 33 34 92 78 65 30 17 17 17 16 16
65 42 15 4 3 2 3 3 10 20 37 32 58 44 34 91 58 21 37 80 32 24 22 29 67 62 37 33 20 26 36 31 27 16 15 24 49 80 58 25 18 18 17 17 17
61 59 29 9 3 2 2 2 8 22 29 41 65 35 18 62 96 49 88 40 17 14 16 21 20 21 29 68 17 12 13 13 15 12 13 26 25 26 23 24 24 20 17 17 17
5 13 6 24 4 2 2 2 9 24 29 51 50 29 16 32 94 23 24 13 18 19 17 15 13 12 10 12 96 75 51 14 19 13 19 28 25 60 30 24 19 18 16 16 16
3 11 5 4 6 3 2 4 11 23 31 48 39 21 12 13 37 23 21 15 11 10 10 9 8 10 10 10 46 38 41 50 24 19 25 30 31 31 61 66 24 15 15 15 21
3 4 5 3 11 10 7 7 10 22 29 54 45 21 14 21 25 16 13 10 9 10 11 11 12 12 8 8 8 16 14 16 22 26 32 32 32 36 36 26 24 22 26 25 25
4 3 3 2 3 10 10 16 25 39 35 59 42 20 15 47 61 28 12 10 10 9 10 11 11 9 9 9 9 15 18 19 22 27 32 31 33 35 34 26 19 26 26 18 17

GFSSW_500_rhum_051.txt.gz
RH
17 16 15 16 16 25 30 32 27 22 12 6 5 4 4 8 12 15 16 21 27 23 18 15 14 16 62 91 88 84 59 51 77 96 100 91 100 96 88 89 78 84 71 71 95
23 20 18 19 19 26 31 32 28 21 8 6 5 4 4 10 15 17 20 26 26 28 22 18 18 19 27 49 86 89 66 62 72 92 94 83 77 67 61 56 75 66 68 70 89
29 26 23 22 23 26 33 32 27 17 7 6 6 4 6 14 17 29 33 32 32 36 22 20 38 69 55 30 70 90 71 75 62 96 66 64 55 44 58 85 64 74 82 91 90
34 32 31 28 29 32 36 33 25 12 6 6 5 5 10 18 24 37 42 37 36 37 32 31 66 78 60 68 73 85 87 98 90 84 53 52 59 82 95 91 82 76 97 97 90
40 38 37 36 36 37 37 30 22 9 6 6 5 6 16 23 27 38 46 37 37 38 60 64 73 70 68 74 84 77 94 100 96 63 57 69 83 97 86 96 88 84 88 77 96
44 42 42 41 40 41 39 25 16 8 6 6 6 6 19 25 37 50 48 43 37 42 56 57 61 64 68 74 100 100 94 91 77 61 57 68 67 86 98 94 62 22 76 57 78
48 47 47 47 44 43 34 22 12 8 6 6 6 8 19 29 35 52 53 45 46 48 52 52 47 55 57 74 71 66 96 94 98 93 73 63 89 93 95 87 35 36 30 36 34
52 51 51 50 47 44 27 18 10 7 6 7 7 9 16 25 43 52 50 43 40 41 39 37 35 53 51 59 68 62 73 84 96 92 67 86 62 47 57 30 13 31 37 14 11
55 53 53 51 49 35 23 15 9 7 7 9 8 10 12 23 47 49 48 40 38 40 43 44 45 39 48 54 82 95 97 99 95 91 99 92 46 36 30 36 21 21 17 12 12
55 55 54 51 45 27 19 12 8 7 9 11 9 12 14 20 47 49 42 38 40 50 64 68 65 62 74 93 99 98 96 86 100 91 82 93 83 44 19 13 17 12 12 10 12
55 52 44 37 36 20 17 11 8 7 13 11 10 14 17 29 47 51 34 34 40 60 79 84 94 89 99 97 97 99 84 77 69 89 87 99 55 43 12 12 37 20 26 9 9
56 50 38 31 28 17 16 11 8 8 13 11 11 17 15 28 48 57 50 45 41 53 70 76 92 96 89 84 97 100 100 97 88 99 46 84 74 43 68 17 26 34 11 22 12
60 53 43 28 24 16 14 11 8 7 14 12 13 21 20 20 38 55 46 51 46 53 69 75 69 96 68 81 90 86 89 92 96 89 45 94 100 86 50 36 20 18 16 27 18
67 57 49 34 24 18 14 12 8 8 14 14 13 23 25 24 33 40 35 53 43 40 56 76 66 96 66 73 99 99 96 94 82 77 38 82 91 74 53 80 97 59 38 34 38
68 61 52 38 24 21 12 12 10 8 15 13 17 20 26 34 32 41 60 55 49 34 83 72 87 81 89 87 97 94 66 80 67 77 84 89 76 78 93 95 100 84 56 24 16
71 62 56 36 23 22 12 10 10 8 14 13 17 16 21 31 39 42 93 51 49 36 72 79 84 78 93 88 92 64 42 72 59 89 83 71 81 88 75 98 91 73 43 28 21
62 46 46 34 19 23 16 8 8 7 16 13 16 17 19 26 33 34 50 42 29 36 75 86 92 96 91 87 82 53 36 47 39 55 38 72 84 99 65 43 38 26 34 27 18
74 57 49 23 21 15 10 9 8 7 11 12 13 23 22 20 24 29 35 43 33 32 70 62 65 74 69 95 100 50 39 45 42 87 73 99 89 79 67 33 42 26 18 16 15
96 79 54 6 8 7 9 10 12 7 10 15 13 22 25 20 25 42 26 28 40 34 52 73 48 96 98 79 77 54 66 85 86 68 64 76 48 20 36 72 69 20 17 18 18
92 84 66 4 4 5 11 18 12 6 8 14 13 25 29 22 23 97 53 32 32 44 67 60 56 76 93 69 43 39 58 59 54 31 18 33 69 54 80 95 68 46 20 19 18
49 94 31 80 8 7 31 17 17 7 8 10 16 30 32 27 26 90 74 38 42 69 97 98 87 56 87 91 30 33 42 41 35 23 16 22 85 95 98 84 65 46 19 18 18
54 52 66 33 60 42 32 31 17 6 10 12 13 25 38 30 74 88 85 44 55 91 100 80 60 75 97 47 39 48 36 37 30 25 26 12 19 51 99 81 73 51 23 20 19
28 38 35 22 44 56 45 28 13 7 6 7 15 25 45 30 87 88 78 66 48 98 44 81 60 50 44 62 51 56 39 27 25 15 10 11 14 32 45 55 39 26 21 22 22
11 12 15 52 56 33 44 33 12 4 5 5 14 33 47 54 46 98 82 81 40 39 16 15 14 15 20 25 26 16 19 42 51 21 12 15 16 42 34 29 26 23 20 20 21
8 10 17 59 50 50 47 19 3 3 4 8 5 20 46 55 25 70 100 42 18 18 15 18 18 17 13 11 10 9 13 23 28 42 17 24 36 39 42 33 34 27 17 18 22
11 12 8 32 65 48 40 18 6 3 6 8 7 20 40 50 20 69 97 13 14 21 14 12 10 9 8 9 8 8 6 11 20 17 24 30 31 39 40 36 37 32 31 33 38
8 8 8 13 48 71 42 15 4 7 5 7 22 34 42 52 19 40 48 16 21 14 10 9 10 10 9 10 9 7 8 9 18 19 23 25 26 33 36 30 29 30 32 37 34

GFSSW_500_rhum_057.txt.gz
RH
23 24 26 28 30 30 28 22 21 19 21 26 30 19 8 6 6 5 7 16 26 36 34 33 31 21 18 26 91 94 80 80 73 76 95 97 87 84 73 71 68 72 72 70 51
26 27 29 34 36 34 31 28 25 22 24 33 29 15 7 6 6 6 10 19 27 41 37 36 32 24 22 51 88 95 74 69 67 71 87 94 86 70 66 61 61 64 60 67 59
28 32 41 43 42 36 35 32 29 27 27 35 26 13 7 7 6 8 12 16 32 46 37 37 34 29 47 61 77 92 82 75 59 60 67 86 80 64 53 50 46 53 56 58 55
47 50 48 46 39 39 38 36 34 32 31 35 23 11 7 7 7 8 12 20 42 43 39 41 41 87 90 86 68 71 93 91 74 62 58 63 60 54 50 42 34 51 64 50 85
53 50 45 42 40 40 41 38 38 36 36 36 22 10 7 8 8 9 13 23 45 43 38 65 62 76 84 81 83 42 81 98 65 66 81 66 61 52 68 64 79 96 88 81 90
49 45 43 45 44 46 46 41 39 40 40 34 20 8 7 9 9 10 13 29 35 45 50 57 62 67 72 76 77 69 88 100 82 78 64 52 55 66 70 83 96 100 100 100 96
58 54 56 57 52 51 48 45 42 44 43 32 19 7 8 10 9 11 14 28 29 35 41 50 54 67 72 70 74 78 82 76 70 66 60 54 69 87 97 82 97 87 94 95 82
71 73 68 66 62 60 53 47 46 48 41 32 16 7 9 11 10 12 14 25 26 27 38 42 38 41 44 62 68 74 78 61 64 72 60 72 84 93 96 90 97 45 34 19 26
73 85 88 75 66 64 57 51 51 49 38 26 14 8 11 10 10 13 16 23 25 33 44 48 39 41 44 64 80 77 78 55 58 94 100 85 88 95 86 59 62 53 18 17 14
81 93 96 87 74 73 76 58 55 48 35 22 13 8 12 11 11 14 17 23 26 38 52 49 45 40 48 51 62 77 99 99 95 96 99 80 60 35 30 47 32 32 31 23 17
86 84 88 92 92 91 85 67 55 47 31 20 13 8 12 12 12 14 18 23 27 43 60 75 90 70 51 75 100 96 100 95 90 100 97 99 90 52 47 43 45 43 32 23 23
97 91 84 94 95 93 88 66 54 42 32 17 11 9 11 13 12 15 19 22 23 44 49 67 89 86 91 81 93 71 85 70 55 82 86 72 70 27 35 46 38 36 25 22 23
99 99 96 94 94 95 86 65 54 36 28 19 13 10 9 14 13 15 21 21 29 33 39 66 73 87 81 84 91 78 90 81 66 44 58 51 49 24 23 52 36 42 21 31 41
98 98 96 96 95 96 88 69 58 36 29 19 15 10 9 14 13 16 23 25 26 37 43 54 68 84 81 74 71 76 69 70 61 52 48 30 39 40 21 30 38 67 63 51 39
98 97 97 94 96 95 89 76 60 38 32 20 15 12 11 15 11 16 19 26 22 28 46 41 51 57 72 81 82 65 60 70 62 56 56 44 23 39 23 32 35 44 68 47 36
97 98 96 100 97 89 95 88 70 46 32 21 17 12 11 14 11 11 16 24 24 24 52 39 60 64 58 71 75 64 50 50 58 57 60 48 43 51 46 51 57 59 59 43 28
100 98 97 98 96 92 96 94 75 59 35 26 15 15 13 14 11 11 15 23 19 23 48 44 88 86 67 66 79 70 52 41 39 42 46 65 47 64 63 72 44 49 34 21 28
100 100 98 99 93 91 97 95 72 58 50 25 18 15 12 12 13 12 13 18 18 21 55 43 81 69 88 86 99 88 72 51 38 33 35 52 41 48 72 75 52 28 24 31 16
89 96 100 100 94 93 95 84 59 65 52 36 20 13 13 13 14 10 12 14 19 15 44 48 59 62 70 98 100 86 76 60 44 36 32 62 51 58 84 79 63 49 23 18 18
73 82 81 100 98 98 90 65 61 77 61 44 28 14 10 10 10 11 13 14 18 21 19 47 61 66 79 84 96 89 86 61 46 53 58 51 56 66 73 53 36 24 59 27 20
62 72 61 86 100 96 60 55 62 80 70 53 40 22 10 10 11 11 15 16 14 21 24 26 34 58 65 95 100 100 98 88 51 67 40 46 39 31 24 24 24 34 77 58 46
41 52 48 57 86 62 58 52 62 74 77 61 45 27 12 9 9 13 16 19 20 25 26 29 29 30 42 91 90 83 68 100 34 37 30 23 19 20 20 21 18 34 62 74 74
21 44 49 23 70 46 54 61 64 74 89 54 36 44 22 9 9 9 18 25 22 23 29 32 32 32 40 57 54 67 93 89 67 24 20 26 22 20 16 18 18 16 20 29 54
12 25 45 36 41 53 59 61 63 51 71 85 53 49 25 12 10 9 15 27 29 26 23 43 41 34 52 75 99 100 94 76 58 48 26 21 18 18 22 11 11 12 13 14 23
12 10 32 41 30 35 58 61 68 57 64 75 42 40 20 8 9 12 12 20 38 39 44 31 26 57 50 69 71 90 97 99 62 26 13 12 10 18 20 21 20 16 20 22 28
12 16 24 31 40 38 49 52 55 67 57 70 43 12 11 11 16 16 16 19 32 44 61 61 30 56 39 41 35 26 34 31 29 12 9 10 8 10 16 22 26 30 29 33 36
12 14 22 25 35 35 31 47 58 84 48 56 22 12 8 12 46 30 15 24 27 47 60 42 40 34 23 24 25 27 20 21 14 12 12 11 10 8 9 17 18 23 28 36 36

GFSSW_500_rhum_063.txt.gz
RH
29 28 27 26 26 24 24 22 21 24 31 35 34 32 29 27 27 30 18 12 10 10 10 14 24 37 36 29 24 45 87 99 96 90 95 93 90 97 99 96 84 79 83 71 77
38 34 33 32 30 28 26 24 24 26 37 39 36 35 32 30 30 32 18 13 9 11 12 15 29 38 34 26 25 47 78 96 98 95 87 87 83 91 91 91 73 71 71 77 70
43 45 46 43 36 33 31 29 28 31 43 38 40 37 35 32 33 32 20 10 10 11 13 19 25 28 30 27 31 41 80 100 98 99 82 70 68 70 79 84 77 71 58 56 59
53 52 50 50 50 48 40 38 45 46 47 38 40 38 37 36 35 31 16 10 11 12 16 18 22 44 36 44 60 71 54 87 100 92 88 79 90 85 68 70 68 58 38 26 28
56 63 62 65 65 58 58 59 59 53 48 42 38 41 39 39 39 33 16 10 12 12 17 23 36 48 54 58 73 75 72 60 89 88 86 78 71 72 72 60 50 42 44 57 46
69 68 69 87 80 74 63 63 58 56 57 45 43 44 44 41 41 34 14 9 12 14 18 24 34 48 48 57 66 69 78 79 60 78 75 75 70 70 70 50 48 55 78 74 78
93 82 81 85 85 86 84 75 62 55 61 52 52 49 46 44 41 30 12 9 13 15 19 23 35 41 48 45 56 62 76 87 95 52 54 70 74 66 60 57 73 96 99 98 99
89 94 89 92 85 87 89 96 76 72 63 66 62 56 48 46 40 27 10 11 14 16 19 26 38 39 42 37 40 53 64 88 87 92 49 51 68 54 58 93 73 79 78 56 83
74 83 95 90 94 95 86 87 84 77 72 71 67 59 50 49 41 26 11 11 14 16 19 27 39 38 38 38 43 52 74 90 100 77 69 96 92 85 100 80 48 39 82 82 45
67 73 86 95 86 96 96 86 88 88 87 89 68 58 52 51 40 24 11 10 14 16 18 33 41 40 38 42 54 61 69 82 93 98 100 100 100 91 77 52 38 71 36 57 54
78 76 81 82 88 90 95 89 92 89 84 95 73 64 57 51 39 22 11 10 14 15 16 31 47 54 36 40 45 58 85 98 86 89 94 90 95 90 87 73 64 76 53 31 27
76 92 92 82 84 82 79 92 89 89 81 92 81 77 64 50 41 20 11 10 14 17 16 29 45 57 52 50 59 66 77 95 82 98 81 78 92 95 86 65 45 33 30 33 31
52 74 96 95 80 87 79 76 99 89 78 88 89 84 67 53 43 21 13 10 14 16 19 20 35 46 49 50 58 62 74 64 72 90 97 88 63 72 64 47 49 35 30 26 25
20 55 86 93 94 100 92 73 91 89 78 65 97 78 66 53 39 19 12 10 14 15 20 16 27 38 40 41 47 52 66 66 62 57 80 83 77 48 69 80 67 49 36 53 52
17 30 66 70 91 99 95 94 79 92 85 68 91 76 57 46 33 21 15 13 14 13 18 20 21 39 41 46 46 47 62 66 70 80 68 59 45 56 33 56 87 100 96 86 69
15 21 34 66 98 97 97 100 93 91 85 73 76 80 57 48 34 22 16 13 13 10 15 20 21 48 44 51 59 64 56 51 50 60 70 71 62 52 46 68 77 64 93 83 72
10 18 21 45 100 87 97 99 99 67 67 79 83 66 53 46 34 25 16 13 13 10 16 19 18 30 44 47 41 49 61 55 49 53 61 64 47 55 52 59 66 68 66 69 69
6 12 21 39 100 88 97 96 83 58 77 84 84 75 53 42 35 22 16 12 13 10 13 15 17 19 30 41 41 42 52 60 61 62 58 52 44 40 40 44 47 65 59 62 66
6 8 13 31 92 96 100 78 59 66 85 85 97 95 75 49 30 21 17 14 16 12 10 13 19 19 27 42 38 49 57 62 54 50 53 44 42 41 43 42 64 77 77 80 49
5 7 10 30 66 74 86 50 57 71 86 91 88 96 79 51 36 22 17 15 14 14 12 12 15 19 21 36 45 50 52 51 52 50 47 41 40 44 50 53 65 67 73 72 49
4 6 7 22 46 60 34 18 45 70 89 97 91 93 99 56 35 26 21 18 18 17 13 10 12 22 24 31 63 58 52 53 61 50 48 43 38 41 46 52 44 45 60 61 50
5 5 6 14 32 46 18 19 35 68 80 96 98 100 100 76 50 36 22 18 18 17 15 13 12 16 25 26 39 56 55 61 68 68 58 42 31 35 40 46 36 28 20 17 16
9 4 6 11 22 26 13 23 29 60 80 94 97 96 100 77 46 38 23 20 14 12 13 15 12 14 19 23 24 28 32 43 69 62 42 36 26 41 27 29 42 42 27 20 16
16 6 7 10 10 18 18 17 21 42 81 92 96 97 99 94 52 38 28 20 17 15 16 14 14 12 15 25 39 42 46 52 56 43 54 40 48 42 39 30 30 19 14 21 21
23 15 5 7 9 11 12 18 23 39 72 96 99 90 99 99 57 35 29 27 20 17 17 15 15 16 19 23 27 31 38 39 50 54 55 44 49 43 23 14 10 7 7 8 14
24 21 5 6 7 10 12 10 13 30 69 81 93 96 92 95 80 44 37 39 35 33 25 20 24 24 25 29 31 31 26 28 48 53 54 55 53 47 18 9 8 10 11 11 10
23 23 8 4 7 9 10 11 12 25 57 81 92 100 96 83 88 86 53 51 39 39 31 24 28 31 26 40 40 22 22 33 40 44 50 34 18 17 8 8 11 14 14 11 10

GFSSW_500_rhum_069.txt.gz
RH
28 27 26 25 27 25 28 30 30 29 29 28 27 25 24 26 35 37 34 37 37 34 38 24 11 10 8 8 17 21 48 96 98 88 97 74 75 78 68 94 90 80 81 77 78
60 53 42 38 34 31 33 33 34 35 34 32 31 30 29 30 40 38 38 40 38 38 40 18 11 9 10 13 19 21 92 100 94 92 80 69 59 86 54 83 86 79 57 65 74
58 52 52 58 56 49 43 40 38 42 45 42 40 36 33 44 48 42 43 41 40 42 42 15 11 10 15 24 26 86 88 100 100 94 90 73 70 72 68 67 75 66 62 64 62
38 37 40 43 46 60 57 51 48 50 51 50 50 49 46 52 50 47 47 43 46 46 38 13 11 10 20 27 64 49 100 97 76 66 82 90 72 69 79 66 58 55 55 57 58
70 67 57 52 49 49 60 64 61 56 56 55 58 58 57 57 55 53 49 47 50 49 32 13 11 12 28 32 36 61 99 51 39 32 42 64 80 76 92 56 45 39 38 36 34
62 60 62 66 62 60 54 64 68 64 59 62 76 76 67 60 58 57 53 54 52 50 26 12 10 13 28 32 32 73 43 47 30 23 38 36 92 68 95 48 41 43 40 33 30
77 69 61 61 63 61 61 63 65 64 68 65 79 90 76 66 59 62 61 61 53 51 23 12 10 13 18 29 32 33 31 98 98 99 89 23 25 73 60 34 45 46 46 59 55
62 68 72 71 65 64 62 71 63 60 59 66 67 85 88 81 68 64 66 63 55 52 19 12 10 16 22 22 30 33 87 99 94 51 37 29 96 96 41 32 44 64 79 75 75
36 38 44 56 63 68 70 74 72 62 62 58 59 73 80 85 73 69 71 65 56 51 20 12 10 20 25 20 62 100 98 88 92 88 88 56 50 98 56 49 80 80 85 65 88
23 27 32 32 37 46 61 68 74 67 64 62 57 63 73 76 75 80 85 67 58 48 22 12 10 20 30 46 100 99 100 98 77 90 73 98 99 98 83 87 76 44 75 78 78
13 15 18 26 32 31 36 46 62 62 64 76 56 65 64 81 76 82 85 69 60 50 20 12 10 16 90 93 47 59 100 100 100 90 62 99 96 100 87 73 82 93 95 67 36
6 9 11 14 20 30 30 30 37 52 56 74 70 66 58 77 82 74 85 69 66 49 22 13 10 14 36 36 48 43 96 100 94 80 64 95 100 96 70 69 64 55 38 45 25
4 4 6 9 12 16 27 29 29 36 43 73 85 65 70 54 83 83 87 82 79 55 26 14 13 12 29 33 39 49 80 97 77 80 84 86 100 92 46 49 58 36 28 25 24
3 3 3 4 7 10 14 23 26 27 40 48 87 69 70 56 58 87 83 86 80 58 26 15 12 11 22 30 36 67 83 55 47 50 97 60 96 93 98 42 42 37 24 18 17
2 2 2 3 4 6 10 14 20 27 52 52 59 65 74 56 77 80 91 90 82 57 28 19 14 10 13 29 34 36 40 50 53 53 71 98 77 99 100 96 85 49 49 47 23
2 2 2 2 2 4 6 8 14 30 30 49 47 65 74 73 78 80 84 90 78 52 29 16 12 8 12 22 31 32 43 47 45 46 100 99 62 96 98 95 98 99 37 53 56
2 2 2 2 2 3 5 6 12 14 28 38 53 75 68 74 88 91 74 87 69 46 31 18 12 9 9 22 30 38 43 92 74 99 89 80 50 72 100 46 52 37 47 60 62
7 4 2 2 2 3 5 6 7 10 15 28 42 79 76 81 87 98 84 92 81 44 27 21 16 12 10 17 32 36 46 99 95 98 96 68 48 96 60 40 46 46 49 59 62
27 12 5 3 4 5 6 24 4 7 11 23 41 71 78 93 94 96 90 92 63 41 26 20 17 14 9 15 23 62 35 91 93 81 70 76 94 66 41 37 34 36 44 45 58
36 39 25 16 11 10 16 4 3 4 10 13 27 71 89 98 96 96 90 86 62 41 26 21 30 20 12 13 15 25 45 49 42 95 95 94 94 95 84 42 33 33 33 36 50
64 34 37 42 30 19 8 2 3 4 7 12 21 54 89 97 97 95 95 69 56 36 26 24 22 56 14 10 13 17 28 42 100 100 100 100 95 98 72 50 46 39 38 44 56
98 47 37 68 35 19 9 2 3 5 5 9 14 35 74 98 98 96 98 71 48 36 26 23 21 59 17 14 20 86 25 50 82 95 74 76 94 99 72 70 42 34 41 44 47
98 86 53 54 26 8 4 4 5 6 6 7 11 25 57 91 98 97 98 95 37 33 25 31 28 24 44 19 11 11 33 98 96 100 94 78 60 96 69 46 49 49 52 42 32
100 90 89 39 31 24 6 4 5 6 6 10 17 16 46 76 96 98 98 98 60 33 33 37 32 25 20 28 37 19 18 39 85 67 19 32 92 100 98 99 100 91 88 46 21
98 66 68 55 37 29 21 6 5 6 6 8 71 27 34 73 88 99 100 97 94 41 41 43 34 32 28 53 100 72 20 17 17 23 33 50 100 93 100 100 86 96 92 45 30
92 64 66 70 69 55 34 26 4 5 8 8 10 30 37 72 85 98 96 98 96 96 53 51 42 38 26 26 87 88 30 14 19 36 24 27 55 96 93 88 50 47 48 41 16
75 81 78 84 71 82 37 26 10 5 6 8 14 52 51 85 84 93 100 100 97 94 79 51 45 46 34 27 40 42 17 14 15 20 23 24 80 100 99 82 44 49 45 20 8

GFSSW_500_rhum_072.txt.gz
RH
30 30 31 28 30 31 30 31 31 28 31 30 31 31 30 30 28 28 30 40 37 40 41 42 39 18 13 9 6 18 33 99 91 95 96 96 78 26 63 71 48 65 52 70 58
50 54 55 53 49 48 46 40 37 37 36 34 35 37 37 35 33 32 41 46 43 44 44 44 36 15 12 10 17 20 38 97 95 85 82 57 38 23 39 47 96 83 88 51 50
57 62 65 61 59 54 50 51 52 51 45 40 40 45 46 44 45 42 49 49 48 49 46 47 31 13 11 9 67 56 71 100 78 98 66 40 59 46 64 31 72 81 71 59 41
55 46 44 42 38 38 38 38 45 47 54 52 48 50 51 50 56 57 57 54 54 52 53 50 23 11 11 14 96 99 42 72 66 31 23 32 83 60 68 83 22 37 33 32 35
73 71 64 66 67 63 59 58 55 50 52 66 60 56 52 54 71 68 62 59 57 57 57 50 18 11 12 20 96 76 88 79 59 37 16 24 23 51 76 81 28 27 24 27 23
69 71 74 68 69 65 62 62 61 53 52 62 60 58 54 59 75 75 67 60 62 62 59 49 16 10 12 16 23 42 55 22 74 84 66 91 54 39 92 48 57 18 15 22 16
62 71 69 62 65 70 66 68 66 57 55 56 53 53 55 70 70 75 75 68 64 65 60 48 15 11 12 14 12 15 21 91 89 95 33 45 88 57 89 99 32 29 14 35 29
48 45 47 51 53 68 77 71 73 63 65 59 54 44 44 70 67 76 75 82 71 69 60 49 15 11 14 15 18 48 63 94 63 73 70 88 92 89 62 80 65 42 42 67 65
33 34 38 41 38 46 52 58 68 69 66 68 61 47 47 64 66 72 68 83 76 74 60 48 15 11 13 17 37 76 77 98 94 62 72 94 95 57 84 98 68 50 45 59 62
18 20 21 25 30 34 34 35 39 48 53 62 63 52 57 58 62 78 70 75 87 83 61 50 17 11 11 22 41 98 95 96 98 95 62 82 100 93 80 82 83 76 66 66 73
10 12 14 15 16 17 23 29 32 28 30 49 54 58 51 62 65 72 77 68 85 84 64 53 23 10 10 58 52 65 70 99 92 86 69 69 83 51 73 79 54 53 80 49 67
5 5 7 9 10 11 13 16 22 25 26 30 38 35 60 56 63 74 77 73 75 85 68 58 25 11 9 65 35 39 35 68 80 89 67 82 96 85 51 40 27 38 28 52 20
4 3 3 4 5 4 6 9 13 17 23 24 28 28 64 45 61 67 80 81 70 92 77 70 25 12 10 22 29 33 39 84 99 97 76 74 93 94 68 69 36 28 24 16 15
3 3 2 2 3 3 3 4 6 11 15 18 27 24 38 49 41 82 76 86 73 85 82 72 25 14 9 13 23 29 72 88 53 52 98 50 66 89 98 90 63 51 34 31 14
2 2 2 2 2 2 2 2 3 5 9 12 17 20 35 37 58 71 86 88 84 86 80 62 32 14 9 11 17 26 23 42 46 40 42 94 60 100 93 82 96 81 55 34 45
2 2 2 2 2 2 2 2 2 5 4 8 11 14 28 38 57 77 76 80 97 90 88 78 36 17 11 9 12 21 24 35 42 36 34 94 76 96 96 97 99 91 58 27 39
2 2 1 1 2 2 2 2 4 5 3 5 8 13 23 33 58 74 75 75 82 77 70 76 49 16 10 8 11 21 26 39 55 39 74 91 98 83 87 68 68 71 69 26 33
4 3 2 2 2 3 2 3 3 2 2 3 6 10 16 35 55 68 73 77 91 97 95 90 49 18 12 9 12 24 33 38 98 88 77 95 48 60 94 55 34 31 41 46 39
19 18 13 7 11 9 6 4 2 1 2 5 10 8 12 22 44 80 72 75 86 98 91 93 42 26 19 14 11 32 27 36 98 94 88 46 98 70 93 61 40 42 32 35 32
44 39 28 25 28 27 20 7 2 1 3 35 65 15 10 22 35 83 86 78 86 96 98 97 70 35 28 17 10 21 79 60 57 60 79 69 84 94 98 97 60 46 33 33 33
74 50 36 45 44 33 14 3 2 2 12 66 96 40 27 100 55 60 82 96 97 98 98 88 92 62 86 22 14 14 20 31 64 64 57 58 93 97 99 92 98 58 37 35 26
100 70 58 86 61 26 14 20 10 3 8 100 43 66 90 83 100 61 78 86 99 98 95 80 86 73 100 36 21 13 14 20 26 52 100 90 94 73 75 94 98 82 53 34 26
98 87 86 93 56 34 29 21 45 24 7 29 41 60 100 100 82 68 85 96 95 96 93 90 65 86 100 88 44 14 18 47 31 30 44 85 37 69 69 62 55 76 55 48 33
100 91 85 63 59 63 64 34 47 33 8 39 50 53 90 100 65 70 80 100 88 98 98 96 89 55 77 84 49 29 21 83 99 56 54 33 62 76 100 88 83 64 78 96 99
91 57 53 44 48 62 69 62 32 23 9 7 32 54 100 90 85 98 100 100 87 97 97 98 100 93 99 71 94 59 42 25 34 48 61 65 70 70 98 98 92 97 98 56 96
85 64 55 51 51 79 72 55 43 31 21 6 6 47 88 93 96 74 100 88 95 100 95 97 92 100 100 93 80 100 100 64 22 22 44 60 65 75 93 95 96 95 84 74 52
73 66 74 62 50 43 40 67 62 50 32 11 7 11 77 84 96 94 86 80 77 100 100 87 83 55 51 82 99 68 95 100 91 93 85 77 60 48 100 90 82 67 35 33 32

GFSSW_500_rhum_075.txt.gz
RH
36 34 32 31 28 27 28 28 28 28 28 29 28 29 31 30 32 39 36 35 35 45 45 48 47 45 36 14 11 5 16 23 62 83 70 78 79 36 30 48 46 92 97 97 80
45 42 42 42 41 43 49 56 57 52 49 48 47 44 38 37 42 48 48 47 47 52 51 52 49 46 28 13 10 6 17 23 63 78 64 42 57 63 37 37 76 74 73 79 62
48 54 62 62 65 64 63 63 62 54 47 44 40 40 44 44 44 49 53 62 61 58 57 54 54 47 27 14 9 11 19 35 46 42 17 14 19 47 41 45 40 80 70 45 53
88 67 60 56 51 47 46 47 39 38 38 35 34 37 42 49 50 49 57 69 64 61 59 59 56 42 21 12 8 19 62 56 44 16 71 52 16 13 18 20 47 96 26 16 22
94 94 85 76 75 66 60 50 55 61 58 55 48 44 43 43 61 49 62 74 70 60 62 64 57 40 19 10 8 9 76 49 38 37 76 72 38 56 12 35 78 100 77 23 13
94 96 89 84 78 76 72 67 62 60 57 56 52 47 42 48 52 54 63 73 80 66 64 67 58 41 14 9 10 10 10 12 74 80 82 52 14 38 61 86 90 98 70 34 24
95 98 94 90 79 80 80 74 67 59 60 55 48 45 47 72 45 45 56 66 78 78 68 70 59 39 17 10 14 18 17 60 70 94 75 38 79 56 73 100 96 96 70 50 42
96 96 96 95 83 48 54 57 63 60 72 64 51 41 49 66 50 51 50 63 73 73 64 70 59 35 14 10 20 37 41 43 57 54 84 40 54 38 92 73 80 95 71 68 46
86 57 61 38 48 92 43 41 40 44 51 58 61 44 55 63 59 55 58 72 69 69 62 72 60 38 13 11 21 39 55 64 68 71 77 52 61 83 87 82 70 74 61 63 68
37 80 66 30 23 26 29 26 32 37 35 42 42 39 52 56 62 65 62 62 77 70 61 76 61 41 11 11 22 18 35 81 98 70 86 60 49 51 45 51 49 67 68 58 78
22 27 29 67 48 26 15 15 20 28 34 32 30 30 34 40 52 61 60 62 68 73 70 72 65 34 12 12 13 21 40 43 84 93 97 60 86 62 57 52 42 48 69 52 77
4 5 5 6 6 12 37 8 9 18 29 29 31 24 30 28 35 59 54 60 61 77 80 61 65 26 13 11 8 20 40 36 69 95 60 76 64 53 75 57 34 29 46 16 15
4 4 4 5 4 4 3 4 5 9 14 22 18 23 27 25 19 47 47 64 64 75 76 69 67 41 16 11 8 27 41 47 42 68 80 68 70 73 59 63 62 59 28 43 19
4 4 4 4 4 4 4 3 3 4 7 9 10 13 17 23 14 47 49 59 57 66 84 80 73 71 24 12 10 21 34 35 34 40 46 71 55 69 78 89 41 69 52 30 29
3 3 3 3 2 2 2 2 2 2 4 6 6 6 10 15 19 37 59 64 61 85 80 70 78 73 42 12 10 16 27 21 35 40 29 36 80 78 78 85 58 54 49 31 40
2 2 2 2 2 2 2 2 2 2 4 4 4 5 5 7 17 27 41 53 73 90 75 78 76 68 45 13 9 11 24 21 28 40 34 41 99 28 72 82 68 25 24 28 40
2 2 2 2 2 2 2 2 2 2 3 4 4 3 3 4 7 14 35 37 45 61 50 71 70 70 51 16 10 9 14 22 23 29 39 66 57 44 76 66 44 34 28 23 25
2 2 2 2 2 2 2 2 2 2 1 2 3 3 3 3 4 10 17 31 41 72 82 81 79 81 66 22 12 12 13 21 21 36 48 51 68 63 73 53 64 73 46 25 23
2 2 2 3 7 3 3 2 1 1 1 1 18 78 2 2 3 7 12 23 39 71 77 83 69 95 90 37 16 15 12 34 31 47 95 80 93 79 95 94 85 75 44 39 27
6 9 7 18 24 20 13 2 3 2 2 2 43 96 34 94 50 18 27 14 24 62 90 93 94 93 78 45 26 15 22 51 59 44 83 82 80 83 86 92 93 55 61 37 37
28 26 23 38 39 30 13 12 15 15 8 3 27 93 100 29 78 99 36 30 41 66 93 97 84 89 93 44 24 21 18 32 49 60 53 53 68 44 94 91 84 90 80 67 58
99 56 50 100 77 37 15 16 21 23 20 9 54 41 95 100 100 88 59 46 75 62 82 84 89 100 91 96 34 44 27 53 59 66 60 54 34 52 93 86 80 90 96 75 51
96 78 69 90 66 37 33 32 35 31 25 23 20 100 97 100 100 75 100 66 82 80 84 90 94 98 97 83 62 40 51 22 25 85 39 55 61 65 96 100 100 74 69 79 64
99 83 68 60 50 58 57 42 45 56 39 31 15 94 100 96 100 95 100 100 87 76 83 100 90 90 85 87 97 92 36 40 24 28 20 20 58 100 100 99 81 85 88 65 62
95 65 58 46 49 65 68 60 56 59 59 52 28 27 99 98 100 90 94 92 100 100 100 84 84 97 83 83 99 73 62 51 27 16 38 33 45 64 63 79 88 80 50 48 87
92 71 61 56 52 48 49 42 56 71 78 74 32 12 94 92 89 99 85 100 83 72 91 58 80 99 97 86 88 98 95 71 52 43 65 54 88 94 95 82 83 100 97 48 30
88 82 76 65 51 46 35 43 57 84 78 75 39 17 14 74 62 90 100 100 100 100 100 100 98 100 91 97 100 90 98 87 73 62 48 37 42 52 70 91 76 96 84 41 18

GFSSW_500_rhum_081.txt.gz
RH
50 45 41 39 34 26 24 24 24 24 22 20 21 23 19 23 25 30 38 38 36 43 46 55 61 59 55 52 45 20 11 12 12 14 19 23 19 25 30 20 14 12 30 49 70
62 57 52 53 56 40 31 32 32 27 24 22 22 24 23 34 42 43 36 35 37 45 48 56 57 59 54 54 46 19 11 12 14 11 12 28 30 40 44 29 27 13 46 58 72
86 73 66 60 68 75 54 39 38 35 29 26 32 38 47 52 46 41 36 32 39 44 49 55 58 59 58 56 46 17 13 11 14 9 12 54 31 50 33 26 66 53 62 50 54
84 86 84 78 72 84 90 65 48 39 38 37 39 52 54 50 38 39 36 35 38 47 51 55 60 61 62 56 46 16 13 12 11 15 16 34 50 55 33 41 54 51 54 41 40
82 82 80 79 86 85 87 89 78 63 42 40 40 43 50 41 51 33 34 34 40 49 50 55 72 51 61 58 45 16 12 12 8 21 37 46 46 33 49 61 54 63 83 58 58
88 84 86 87 86 79 94 89 93 74 66 51 40 43 39 45 53 46 43 41 41 44 54 50 64 49 59 61 42 18 11 17 20 56 52 53 42 44 41 39 45 57 72 40 38
93 93 88 96 86 91 91 87 89 94 72 64 55 45 41 66 49 57 52 45 43 44 57 52 45 60 58 58 41 19 13 26 29 59 67 54 35 38 44 56 52 51 59 53 38
96 97 97 92 95 87 87 90 84 86 84 70 62 55 47 70 54 55 51 53 48 50 59 51 44 58 65 56 41 17 14 30 28 49 72 52 44 40 42 43 48 58 58 55 46
92 94 92 100 89 87 81 89 84 83 76 80 67 64 67 68 62 52 52 59 53 54 54 45 41 59 65 63 46 15 15 25 28 42 51 55 48 44 39 31 52 44 51 49 47
93 92 96 98 88 73 66 89 82 79 79 87 87 78 66 59 59 55 56 59 58 58 58 45 44 51 61 69 48 25 15 15 30 49 52 52 42 45 45 33 38 25 39 47 59
86 80 87 93 99 75 76 46 69 72 70 76 66 71 48 41 42 46 56 66 67 58 56 51 51 46 82 72 56 39 15 13 24 31 29 40 38 46 36 32 29 39 26 28 42
94 79 28 72 81 49 53 78 74 45 64 65 58 54 21 21 46 36 38 49 67 65 67 59 44 71 86 65 59 46 19 13 25 28 20 39 42 40 51 43 26 32 36 25 20
42 62 34 87 14 61 58 31 11 47 34 43 35 72 65 43 32 20 31 33 38 47 58 61 66 74 83 72 60 53 28 13 16 25 20 28 43 37 48 60 45 33 27 20 15
18 17 55 22 19 30 63 50 40 19 25 35 15 12 16 68 43 19 21 22 28 29 50 51 76 61 76 74 63 58 37 15 11 21 19 29 44 34 40 49 40 38 31 27 38
25 10 25 17 41 15 5 5 10 9 26 22 14 22 11 9 18 14 15 23 23 25 30 31 65 64 76 84 78 67 50 26 14 14 17 36 33 53 32 46 46 41 31 27 28
46 33 13 20 8 7 13 6 5 4 24 22 20 12 12 15 9 7 8 9 14 14 21 24 51 64 72 97 80 85 67 34 17 12 11 46 39 36 36 33 42 23 25 27 33
16 14 11 9 8 10 5 4 4 4 7 8 10 9 6 5 6 6 6 7 8 10 14 17 24 48 75 87 86 72 69 44 24 13 10 48 23 38 26 29 25 20 22 30 28
40 66 25 8 6 5 5 5 4 5 4 3 3 3 4 4 4 4 4 5 6 6 8 12 22 41 53 69 85 82 73 57 23 14 12 29 15 30 31 35 30 22 22 25 26
12 11 10 7 6 6 4 5 6 4 4 4 3 2 2 2 3 3 4 4 4 4 5 8 8 38 64 95 97 91 79 74 36 17 11 16 16 25 27 46 50 32 50 40 25
8 9 8 6 6 5 4 6 5 5 4 4 2 3 3 2 2 3 3 3 4 4 4 5 6 25 51 80 84 93 92 91 72 38 16 10 14 19 43 49 33 25 27 36 56
5 6 5 4 4 5 5 5 4 2 2 2 2 2 2 3 2 2 3 5 3 3 4 4 7 20 52 58 78 83 83 81 79 54 27 17 12 29 41 64 41 22 21 28 66
6 5 5 5 4 4 5 4 2 2 2 2 2 3 3 4 3 2 3 10 6 4 7 9 5 5 22 72 87 95 94 91 89 67 40 20 14 28 57 76 48 32 22 35 54
7 5 4 5 4 4 3 2 2 2 2 3 6 13 13 6 4 2 6 37 34 20 16 19 8 7 15 51 61 78 99 94 98 96 46 27 19 42 68 65 51 38 18 28 40
8 6 4 4 3 2 3 3 3 5 13 17 25 30 31 20 14 8 22 98 91 43 37 58 25 11 5 28 68 97 99 98 97 88 54 33 23 29 62 50 38 28 24 39 53
7 5 4 3 3 3 5 7 10 19 42 64 30 42 61 31 22 13 11 73 100 96 97 100 90 40 10 24 83 100 100 100 87 76 68 43 36 21 39 64 44 45 50 69 68
5 4 3 3 4 15 36 43 69 100 100 100 57 100 92 44 28 24 17 17 68 100 100 100 74 74 26 21 59 97 100 100 84 79 84 60 44 36 52 73 54 53 78 68 50
13 6 6 10 70 95 96 92 97 100 100 100 94 97 61 71 62 30 22 14 44 71 100 100 100 77 32 47 74 100 63 73 86 86 94 87 62 46 38 39 33 34 36 62 67